Wetterdaten: Sonntag, 11.06.2017
Datum Zeit Temp. Aussen Temp. o. S. +5cm Feuchte Auss BlattFeu 1 Luftdruck Regen Sonnenschein Regendauer Solar Windben Empfang
11.06.2017 00:00 19,1 C 18,3 C 15,0 C 74 % 0 lf 1018,1 hPa 0,0 l/m 0 min 0 min 0 W/m 6,3 km/h (2 Bft) 84,09 %
11.06.2017 00:02 19,0 C 18,3 C 15,0 C 74 % 0 lf 1018,0 hPa 0,0 l/m 0 min 0 min 0 W/m 4,2 km/h (1 Bft) 86,11 %
11.06.2017 00:04 18,9 C 18,3 C 15,0 C 74 % 0 lf 1018,0 hPa 0,0 l/m 0 min 0 min 0 W/m 4,2 km/h (1 Bft) 55,10 %
11.06.2017 00:06 18,9 C 18,3 C 15,0 C 74 % 0 lf 1018,1 hPa 0,0 l/m 0 min 0 min 0 W/m 2,1 km/h (1 Bft) 61,70 %
11.06.2017 00:10 18,9 C 18,3 C 15,0 C 74 % 0 lf 1018,1 hPa 0,0 l/m 0 min 0 min 0 W/m 6,3 km/h (2 Bft) 37,23 %
11.06.2017 00:12 18,9 C 18,3 C 15,0 C 74 % 0 lf 1018,0 hPa 0,0 l/m 0 min 0 min 0 W/m 4,2 km/h (1 Bft) 8,51 %
11.06.2017 00:14 18,9 C 18,3 C 15,0 C 74 % 0 lf 1018,0 hPa 0,0 l/m 0 min 0 min 0 W/m 2,1 km/h (1 Bft) 45,65 %
11.06.2017 00:16 18,8 C 18,3 C 15,0 C 75 % 0 lf 1018,0 hPa 0,0 l/m 0 min 0 min 0 W/m 6,3 km/h (2 Bft) 96,97 %
11.06.2017 00:18 18,7 C 18,3 C 15,0 C 75 % 0 lf 1018,0 hPa 0,0 l/m 0 min 0 min 0 W/m 6,3 km/h (2 Bft) 84,91 %
11.06.2017 00:20 18,7 C 18,3 C 15,0 C 75 % 0 lf 1018,0 hPa 0,0 l/m 0 min 0 min 0 W/m 6,3 km/h (2 Bft) 82,98 %
11.06.2017 00:22 18,7 C 18,3 C 15,0 C 75 % 0 lf 1018,0 hPa 0,0 l/m 0 min 0 min 0 W/m 4,2 km/h (1 Bft) 86,84 %
11.06.2017 00:24 18,7 C 18,3 C 15,0 C 75 % 0 lf 1018,0 hPa 0,0 l/m 0 min 0 min 0 W/m 6,3 km/h (2 Bft) 80,85 %
11.06.2017 00:26 18,6 C 18,3 C 15,0 C 75 % 0 lf 1018,0 hPa 0,0 l/m 0 min 0 min 0 W/m 4,2 km/h (1 Bft) 85,11 %
11.06.2017 00:28 18,6 C 18,3 C 15,0 C 76 % 0 lf 1018,0 hPa 0,0 l/m 0 min 0 min 0 W/m 4,2 km/h (1 Bft) 84,78 %
11.06.2017 00:30 18,6 C 18,3 C 15,0 C 76 % 0 lf 1018,0 hPa 0,0 l/m 0 min 0 min 0 W/m 4,2 km/h (1 Bft) 51,06 %
11.06.2017 00:32 18,6 C 18,3 C 15,0 C 76 % 0 lf 1018,0 hPa 0,0 l/m 0 min 0 min 0 W/m 6,3 km/h (2 Bft) 72,34 %
11.06.2017 00:34 18,5 C 18,3 C 15,0 C 76 % 0 lf 1018,0 hPa 0,0 l/m 0 min 0 min 0 W/m 4,2 km/h (1 Bft) 95,74 %
11.06.2017 00:36 18,5 C 17,8 C 15,0 C 76 % 0 lf 1017,9 hPa 0,0 l/m 0 min 0 min 0 W/m 6,3 km/h (2 Bft) 91,49 %
11.06.2017 00:38 18,5 C 17,8 C 15,0 C 76 % 0 lf 1017,9 hPa 0,0 l/m 0 min 0 min 0 W/m 8,4 km/h (2 Bft) 73,47 %
11.06.2017 00:40 18,4 C 17,8 C 15,0 C 76 % 0 lf 1017,9 hPa 0,0 l/m 0 min 0 min 0 W/m 6,3 km/h (2 Bft) 86,96 %
11.06.2017 00:42 18,4 C 17,8 C 15,0 C 76 % 0 lf 1017,9 hPa 0,0 l/m 0 min 0 min 0 W/m 6,3 km/h (2 Bft) 89,36 %
11.06.2017 00:44 18,4 C 17,8 C 14,4 C 76 % 0 lf 1017,9 hPa 0,0 l/m 0 min 0 min 0 W/m 6,3 km/h (2 Bft) 89,36 %
11.06.2017 00:46 18,4 C 17,8 C 15,0 C 76 % 0 lf 1017,9 hPa 0,0 l/m 0 min 0 min 0 W/m 8,4 km/h (2 Bft) 93,62 %
11.06.2017 00:48 18,4 C 17,8 C 15,0 C 76 % 0 lf 1017,9 hPa 0,0 l/m 0 min 0 min 0 W/m 4,2 km/h (1 Bft) 89,36 %
11.06.2017 00:50 18,3 C 17,8 C 15,0 C 76 % 0 lf 1017,9 hPa 0,0 l/m 0 min 0 min 0 W/m 6,3 km/h (2 Bft) 93,62 %
11.06.2017 00:52 18,3 C 17,8 C 15,0 C 76 % 0 lf 1017,9 hPa 0,0 l/m 0 min 0 min 0 W/m 6,3 km/h (2 Bft) 88,68 %
11.06.2017 00:54 18,3 C 17,8 C 15,0 C 76 % 0 lf 1017,9 hPa 0,0 l/m 0 min 0 min 0 W/m 8,4 km/h (2 Bft) 94,74 %
11.06.2017 00:56 18,3 C 18,3 C 15,0 C 76 % 0 lf 1018,0 hPa 0,0 l/m 0 min 0 min 0 W/m 6,3 km/h (2 Bft) 87,23 %
11.06.2017 00:58 18,3 C 18,3 C 15,0 C 76 % 0 lf 1017,9 hPa 0,0 l/m 0 min 0 min 0 W/m 8,4 km/h (2 Bft) 82,98 %
11.06.2017 01:00 18,3 C 18,3 C 15,0 C 76 % 0 lf 1017,9 hPa 0,0 l/m 0 min 0 min 0 W/m 6,3 km/h (2 Bft) 91,49 %
11.06.2017 01:02 18,3 C 18,3 C 15,0 C 77 % 0 lf 1017,9 hPa 0,0 l/m 0 min 0 min 0 W/m 6,3 km/h (2 Bft) 93,48 %
11.06.2017 01:04 18,3 C 17,8 C 15,0 C 77 % 0 lf 1017,9 hPa 0,0 l/m 0 min 0 min 0 W/m 6,3 km/h (2 Bft) 91,84 %
11.06.2017 01:06 18,2 C 17,8 C 15,0 C 77 % 0 lf 1017,9 hPa 0,0 l/m 0 min 0 min 0 W/m 6,3 km/h (2 Bft) 95,74 %
11.06.2017 01:08 18,2 C 17,8 C 15,0 C 77 % 0 lf 1017,9 hPa 0,0 l/m 0 min 0 min 0 W/m 6,3 km/h (2 Bft) 95,74 %
11.06.2017 01:10 18,2 C 17,8 C 15,0 C 77 % 0 lf 1017,9 hPa 0,0 l/m 0 min 0 min 0 W/m 6,3 km/h (2 Bft) 88,89 %
11.06.2017 01:12 18,2 C 17,8 C 15,0 C 77 % 0 lf 1017,9 hPa 0,0 l/m 0 min 0 min 0 W/m 6,3 km/h (2 Bft) 89,47 %
11.06.2017 01:14 18,2 C 17,8 C 15,0 C 77 % 0 lf 1018,0 hPa 0,0 l/m 0 min 0 min 0 W/m 6,3 km/h (2 Bft) 89,13 %
11.06.2017 01:16 18,2 C 17,8 C 15,0 C 77 % 0 lf 1018,0 hPa 0,0 l/m 0 min 0 min 0 W/m 6,3 km/h (2 Bft) 82,98 %
11.06.2017 01:18 18,2 C 17,8 C 15,0 C 77 % 0 lf 1017,9 hPa 0,0 l/m 0 min 0 min 0 W/m 4,2 km/h (1 Bft) 87,23 %
11.06.2017 01:20 18,2 C 17,8 C 15,0 C 77 % 0 lf 1018,0 hPa 0,0 l/m 0 min 0 min 0 W/m 4,2 km/h (1 Bft) 89,36 %
11.06.2017 01:22 18,1 C 17,8 C 15,0 C 77 % 0 lf 1017,9 hPa 0,0 l/m 0 min 0 min 0 W/m 6,3 km/h (2 Bft) 85,11 %
11.06.2017 01:24 18,1 C 17,8 C 15,0 C 77 % 0 lf 1017,9 hPa 0,0 l/m 0 min 0 min 0 W/m 6,3 km/h (2 Bft) 91,49 %
11.06.2017 01:26 18,1 C 17,8 C 15,6 C 77 % 0 lf 1017,8 hPa 0,0 l/m 0 min 0 min 0 W/m 6,3 km/h (2 Bft) 81,63 %
11.06.2017 01:28 18,1 C 17,8 C 15,6 C 77 % 0 lf 1017,9 hPa 0,0 l/m 0 min 0 min 0 W/m 6,3 km/h (2 Bft) 89,13 %
11.06.2017 01:30 18,1 C 17,8 C 15,0 C 77 % 0 lf 1018,0 hPa 0,0 l/m 0 min 0 min 0 W/m 4,2 km/h (1 Bft) 85,11 %
11.06.2017 01:32 18,1 C 17,8 C 15,0 C 77 % 0 lf 1018,0 hPa 0,0 l/m 0 min 0 min 0 W/m 6,3 km/h (2 Bft) 74,47 %
11.06.2017 01:34 18,1 C 17,2 C 15,0 C 77 % 0 lf 1018,0 hPa 0,0 l/m 0 min 0 min 0 W/m 6,3 km/h (2 Bft) 74,47 %
11.06.2017 01:36 18,0 C 17,2 C 15,0 C 77 % 0 lf 1018,0 hPa 0,0 l/m 0 min 0 min 0 W/m 4,2 km/h (1 Bft) 61,70 %
11.06.2017 01:38 18,0 C 17,2 C 15,0 C 77 % 0 lf 1018,0 hPa 0,0 l/m 0 min 0 min 0 W/m 4,2 km/h (1 Bft) 46,81 %
11.06.2017 01:40 17,9 C 17,2 C 15,0 C 77 % 0 lf 1017,9 hPa 0,0 l/m 0 min 0 min 0 W/m 4,2 km/h (1 Bft) 43,48 %
11.06.2017 01:42 17,9 C 17,2 C 15,0 C 77 % 0 lf 1017,9 hPa 0,0 l/m 0 min 0 min 0 W/m 4,2 km/h (1 Bft) 36,17 %
11.06.2017 01:44 17,9 C 17,2 C 15,0 C 77 % 0 lf 1018,0 hPa 0,0 l/m 0 min 0 min 0 W/m 4,2 km/h (1 Bft) 21,62 %
11.06.2017 01:46 17,9 C 17,2 C 15,0 C 77 % 0 lf 1017,9 hPa 0,0 l/m 0 min 0 min 0 W/m 4,2 km/h (1 Bft) 77,45 %
11.06.2017 01:48 17,9 C 17,2 C 15,0 C 77 % 0 lf 1018,0 hPa 0,0 l/m 0 min 0 min 0 W/m 4,2 km/h (1 Bft) 77,45 %
11.06.2017 01:50 17,9 C 17,2 C 15,0 C 77 % 0 lf 1018,0 hPa 0,0 l/m 0 min 0 min 0 W/m 4,2 km/h (1 Bft) 77,45 %
11.06.2017 01:52 17,9 C 17,2 C 14,4 C 77 % 0 lf 1017,9 hPa 0,0 l/m 0 min 0 min 0 W/m 4,2 km/h (1 Bft) 77,45 %
11.06.2017 01:54 17,9 C 17,2 C 14,4 C 77 % 0 lf 1017,9 hPa 0,0 l/m 0 min 0 min 0 W/m 4,2 km/h (1 Bft) 70,30 %
11.06.2017 01:56 17,9 C 17,2 C 14,4 C 77 % 0 lf 1017,9 hPa 0,0 l/m 0 min 0 min 0 W/m 4,2 km/h (1 Bft) 70,30 %
11.06.2017 01:58 17,9 C 17,2 C 14,4 C 77 % 0 lf 1018,0 hPa 0,0 l/m 0 min 0 min 0 W/m 4,2 km/h (1 Bft) 70,30 %
11.06.2017 02:00 17,9 C 17,2 C 14,4 C 77 % 0 lf 1018,0 hPa 0,0 l/m 0 min 0 min 0 W/m 4,2 km/h (1 Bft) 70,30 %
11.06.2017 02:02 17,9 C 17,2 C 14,4 C 77 % 0 lf 1018,0 hPa 0,0 l/m 0 min 0 min 0 W/m 4,2 km/h (1 Bft) 70,30 %
11.06.2017 02:05 17,9 C 17,2 C 15,0 C 77 % 0 lf 1018,0 hPa 0,0 l/m 0 min 0 min 0 W/m 0,0 km/h (0 Bft) 0,00 %
11.06.2017 02:10 17,9 C 17,2 C 15,0 C 77 % 0 lf 1017,9 hPa 0,0 l/m 0 min 0 min 0 W/m 0,0 km/h (0 Bft) 0,00 %
11.06.2017 02:15 17,9 C 17,2 C 15,0 C 77 % 0 lf 1017,9 hPa 0,0 l/m 0 min 0 min 0 W/m 0,0 km/h (0 Bft) 0,00 %
11.06.2017 02:20 17,9 C 17,2 C 15,0 C 77 % 0 lf 1018,0 hPa 0,0 l/m 0 min 0 min 0 W/m 0,0 km/h (0 Bft) 0,00 %
11.06.2017 02:25 17,9 C 16,7 C 15,0 C 77 % 0 lf 1017,9 hPa 0,0 l/m 0 min 0 min 0 W/m 0,0 km/h (0 Bft) 0,00 %
11.06.2017 02:30 17,9 C 17,2 C 15,0 C 77 % 0 lf 1017,9 hPa 0,0 l/m 0 min 0 min 0 W/m 0,0 km/h (0 Bft) 0,00 %
11.06.2017 02:35 17,9 C 16,7 C 14,4 C 77 % 0 lf 1017,9 hPa 0,0 l/m 0 min 0 min 0 W/m 0,0 km/h (0 Bft) 0,00 %
11.06.2017 02:40 17,3 C 16,7 C 15,0 C 80 % 0 lf 1018,0 hPa 0,0 l/m 0 min 0 min 0 W/m 6,3 km/h (2 Bft) 47,37 %
11.06.2017 02:45 17,2 C 16,7 C 15,0 C 80 % 0 lf 1017,8 hPa 0,0 l/m 0 min 0 min 0 W/m 8,4 km/h (2 Bft) 70,18 %
11.06.2017 02:50 17,2 C 16,7 C 14,4 C 80 % 0 lf 1017,8 hPa 0,0 l/m 0 min 0 min 0 W/m 4,2 km/h (1 Bft) 3,51 %
11.06.2017 02:55 17,2 C 16,7 C 14,4 C 80 % 0 lf 1017,8 hPa 0,0 l/m 0 min 0 min 0 W/m 0,0 km/h (0 Bft) 0,00 %
11.06.2017 03:00 17,2 C 16,7 C 13,9 C 80 % 0 lf 1017,7 hPa 0,0 l/m 0 min 0 min 0 W/m 0,0 km/h (0 Bft) 0,88 %
11.06.2017 03:05 17,2 C 16,7 C 14,4 C 80 % 0 lf 1017,7 hPa 0,0 l/m 0 min 0 min 0 W/m 2,1 km/h (1 Bft) 0,88 %
11.06.2017 03:10 17,0 C 16,7 C 14,4 C 80 % 0 lf 1017,7 hPa 0,0 l/m 0 min 0 min 0 W/m 8,4 km/h (2 Bft) 76,32 %
11.06.2017 03:15 16,9 C 16,7 C 14,4 C 81 % 0 lf 1017,7 hPa 0,0 l/m 0 min 0 min 0 W/m 8,4 km/h (2 Bft) 82,46 %
11.06.2017 03:20 16,9 C 16,7 C 14,4 C 81 % 0 lf 1017,8 hPa 0,0 l/m 0 min 0 min 0 W/m 8,4 km/h (2 Bft) 51,75 %
11.06.2017 03:25 16,9 C 16,7 C 14,4 C 81 % 0 lf 1017,6 hPa 0,0 l/m 0 min 0 min 0 W/m 6,3 km/h (2 Bft) 40,35 %
11.06.2017 03:30 16,8 C 16,7 C 14,4 C 81 % 0 lf 1017,6 hPa 0,0 l/m 0 min 0 min 0 W/m 6,3 km/h (2 Bft) 93,86 %
11.06.2017 03:35 16,8 C 16,1 C 14,4 C 81 % 0 lf 1017,5 hPa 0,0 l/m 0 min 0 min 0 W/m 8,4 km/h (2 Bft) 99,12 %
11.06.2017 03:40 16,7 C 16,1 C 14,4 C 81 % 0 lf 1017,6 hPa 0,0 l/m 0 min 0 min 0 W/m 8,4 km/h (2 Bft) 99,12 %
11.06.2017 03:45 16,7 C 16,1 C 14,4 C 82 % 0 lf 1017,6 hPa 0,0 l/m 0 min 0 min 0 W/m 10,5 km/h (2 Bft) 98,25 %
11.06.2017 03:50 16,6 C 16,1 C 14,4 C 82 % 0 lf 1017,6 hPa 0,0 l/m 0 min 0 min 0 W/m 10,5 km/h (2 Bft) 99,12 %
11.06.2017 03:55 16,6 C 16,1 C 14,4 C 82 % 0 lf 1017,5 hPa 0,0 l/m 0 min 0 min 0 W/m 8,4 km/h (2 Bft) 100,00 %
11.06.2017 04:00 16,5 C 16,1 C 14,4 C 82 % 0 lf 1017,5 hPa 0,0 l/m 0 min 0 min 0 W/m 10,5 km/h (2 Bft) 99,12 %
11.06.2017 04:05 16,4 C 16,1 C 14,4 C 82 % 0 lf 1017,5 hPa 0,0 l/m 0 min 0 min 0 W/m 10,5 km/h (2 Bft) 93,86 %
11.06.2017 04:10 16,4 C 16,1 C 14,4 C 83 % 0 lf 1017,5 hPa 0,0 l/m 0 min 0 min 0 W/m 10,5 km/h (2 Bft) 95,61 %
11.06.2017 04:15 16,4 C 16,1 C 14,4 C 83 % 0 lf 1017,5 hPa 0,0 l/m 0 min 0 min 0 W/m 8,4 km/h (2 Bft) 97,37 %
11.06.2017 04:20 16,3 C 16,1 C 14,4 C 83 % 0 lf 1017,6 hPa 0,0 l/m 0 min 0 min 0 W/m 8,4 km/h (2 Bft) 93,86 %
11.06.2017 04:25 16,3 C 15,6 C 13,9 C 83 % 0 lf 1017,6 hPa 0,0 l/m 0 min 0 min 0 W/m 6,3 km/h (2 Bft) 94,74 %
11.06.2017 04:30 16,2 C 15,6 C 13,9 C 83 % 0 lf 1017,5 hPa 0,0 l/m 0 min 0 min 0 W/m 6,3 km/h (2 Bft) 97,37 %
11.06.2017 04:35 16,2 C 15,6 C 13,9 C 83 % 0 lf 1017,5 hPa 0,0 l/m 0 min 0 min 0 W/m 8,4 km/h (2 Bft) 95,61 %
11.06.2017 04:40 16,1 C 15,6 C 13,9 C 84 % 0 lf 1017,6 hPa 0,0 l/m 0 min 0 min 0 W/m 8,4 km/h (2 Bft) 94,74 %
11.06.2017 04:45 16,1 C 15,6 C 13,9 C 84 % 0 lf 1017,6 hPa 0,0 l/m 0 min 0 min 0 W/m 8,4 km/h (2 Bft) 93,86 %
11.06.2017 04:50 16,0 C 15,6 C 13,9 C 84 % 0 lf 1017,6 hPa 0,0 l/m 0 min 0 min 0 W/m 6,3 km/h (2 Bft) 97,37 %
11.06.2017 04:55 16,0 C 15,6 C 13,9 C 84 % 0 lf 1017,6 hPa 0,0 l/m 0 min 0 min 0 W/m 8,4 km/h (2 Bft) 95,61 %
11.06.2017 05:00 15,9 C 15,6 C 13,9 C 85 % 0 lf 1017,6 hPa 0,0 l/m 0 min 0 min 0 W/m 8,4 km/h (2 Bft) 96,49 %
11.06.2017 05:05 15,9 C 15,6 C 13,9 C 85 % 0 lf 1017,6 hPa 0,0 l/m 0 min 0 min 0 W/m 8,4 km/h (2 Bft) 97,37 %
11.06.2017 05:10 15,9 C 15,6 C 13,9 C 85 % 0 lf 1017,6 hPa 0,0 l/m 0 min 0 min 0 W/m 8,4 km/h (2 Bft) 94,74 %
11.06.2017 05:15 15,8 C 15,6 C 14,4 C 85 % 0 lf 1017,5 hPa 0,0 l/m 0 min 0 min 0 W/m 8,4 km/h (2 Bft) 98,25 %
11.06.2017 05:20 15,8 C 15,6 C 14,4 C 86 % 0 lf 1017,4 hPa 0,0 l/m 0 min 0 min 3 W/m 8,4 km/h (2 Bft) 93,86 %
11.06.2017 05:25 15,8 C 16,1 C 14,4 C 86 % 0 lf 1017,5 hPa 0,0 l/m 0 min 0 min 5 W/m 6,3 km/h (2 Bft) 97,37 %
11.06.2017 05:30 15,8 C 16,1 C 14,4 C 86 % 0 lf 1017,4 hPa 0,0 l/m 0 min 0 min 7 W/m 6,3 km/h (2 Bft) 97,37 %
11.06.2017 05:35 15,8 C 16,1 C 14,4 C 86 % 0 lf 1017,4 hPa 0,0 l/m 0 min 0 min 11 W/m 8,4 km/h (2 Bft) 95,61 %
11.06.2017 05:40 15,8 C 16,1 C 15,0 C 86 % 0 lf 1017,3 hPa 0,0 l/m 0 min 0 min 16 W/m 10,5 km/h (2 Bft) 98,25 %
11.06.2017 05:45 15,8 C 16,1 C 15,0 C 86 % 0 lf 1017,2 hPa 0,0 l/m 0 min 0 min 15 W/m 10,5 km/h (2 Bft) 99,12 %
11.06.2017 06:12 15,9 C 16,1 C 15,0 C 86 % 0 lf 1017,2 hPa 0,0 l/m 0 min 0 min 28 W/m 12,6 km/h (3 Bft) 97,83 %
11.06.2017 06:14 15,9 C 16,1 C 15,0 C 86 % 0 lf 1017,2 hPa 0,0 l/m 0 min 0 min 29 W/m 10,5 km/h (2 Bft) 97,83 %
11.06.2017 06:16 15,9 C 16,1 C 15,0 C 86 % 0 lf 1017,3 hPa 0,0 l/m 0 min 0 min 31 W/m 10,5 km/h (2 Bft) 95,74 %
11.06.2017 06:22 16,0 C 16,1 C 15,6 C 86 % 0 lf 1017,2 hPa 0,0 l/m 0 min 0 min 33 W/m 10,5 km/h (2 Bft) 97,81 %
11.06.2017 06:24 16,0 C 16,1 C 15,6 C 86 % 0 lf 1017,1 hPa 0,0 l/m 0 min 0 min 38 W/m 12,6 km/h (3 Bft) 100,00 %
11.06.2017 06:26 16,0 C 16,1 C 15,6 C 86 % 0 lf 1017,0 hPa 0,0 l/m 0 min 0 min 39 W/m 12,6 km/h (3 Bft) 100,00 %
11.06.2017 06:28 16,1 C 16,7 C 15,6 C 86 % 0 lf 1017,0 hPa 0,0 l/m 0 min 0 min 41 W/m 12,6 km/h (3 Bft) 100,00 %
11.06.2017 06:30 16,0 C 16,7 C 15,6 C 86 % 0 lf 1017,1 hPa 0,0 l/m 0 min 0 min 43 W/m 10,5 km/h (2 Bft) 95,74 %
11.06.2017 06:32 16,1 C 16,7 C 15,6 C 86 % 0 lf 1017,1 hPa 0,0 l/m 0 min 0 min 46 W/m 10,5 km/h (2 Bft) 100,00 %
11.06.2017 06:34 16,1 C 16,7 C 15,6 C 86 % 0 lf 1017,0 hPa 0,0 l/m 0 min 0 min 49 W/m 10,5 km/h (2 Bft) 95,74 %
11.06.2017 06:36 16,1 C 16,7 C 15,6 C 86 % 0 lf 1017,0 hPa 0,0 l/m 0 min 0 min 51 W/m 10,5 km/h (2 Bft) 97,96 %
11.06.2017 06:38 16,1 C 16,7 C 15,6 C 86 % 0 lf 1017,0 hPa 0,0 l/m 0 min 0 min 54 W/m 12,6 km/h (3 Bft) 97,87 %
11.06.2017 06:40 16,1 C 16,7 C 15,6 C 86 % 0 lf 1017,0 hPa 0,0 l/m 0 min 0 min 56 W/m 10,5 km/h (2 Bft) 100,00 %
11.06.2017 06:42 16,1 C 16,7 C 15,6 C 86 % 0 lf 1017,0 hPa 0,0 l/m 0 min 0 min 60 W/m 12,6 km/h (3 Bft) 100,00 %
11.06.2017 06:44 16,1 C 16,7 C 16,1 C 86 % 0 lf 1017,0 hPa 0,0 l/m 0 min 0 min 60 W/m 12,6 km/h (3 Bft) 95,74 %
11.06.2017 06:46 16,1 C 16,7 C 16,1 C 86 % 0 lf 1017,1 hPa 0,0 l/m 0 min 0 min 62 W/m 12,6 km/h (3 Bft) 100,00 %
11.06.2017 06:48 16,2 C 16,7 C 16,1 C 86 % 0 lf 1017,1 hPa 0,0 l/m 0 min 0 min 62 W/m 14,6 km/h (3 Bft) 95,74 %
11.06.2017 06:50 16,2 C 16,7 C 16,1 C 86 % 0 lf 1017,1 hPa 0,0 l/m 0 min 0 min 62 W/m 12,6 km/h (3 Bft) 97,87 %
11.06.2017 06:52 16,2 C 16,7 C 16,1 C 86 % 0 lf 1017,1 hPa 0,0 l/m 0 min 0 min 62 W/m 8,4 km/h (2 Bft) 93,62 %
11.06.2017 06:54 16,2 C 16,7 C 16,1 C 86 % 0 lf 1017,1 hPa 0,0 l/m 0 min 0 min 64 W/m 10,5 km/h (2 Bft) 95,74 %
11.06.2017 06:56 16,2 C 17,2 C 16,1 C 86 % 0 lf 1017,1 hPa 0,0 l/m 0 min 0 min 70 W/m 10,5 km/h (2 Bft) 97,87 %
11.06.2017 06:58 16,3 C 17,2 C 16,1 C 86 % 0 lf 1017,1 hPa 0,0 l/m 0 min 0 min 74 W/m 12,6 km/h (3 Bft) 91,49 %
11.06.2017 07:00 16,3 C 17,2 C 16,1 C 86 % 0 lf 1017,2 hPa 0,0 l/m 0 min 0 min 78 W/m 14,6 km/h (3 Bft) 71,43 %
11.06.2017 07:02 16,3 C 17,2 C 16,7 C 86 % 0 lf 1017,1 hPa 0,0 l/m 0 min 0 min 82 W/m 8,4 km/h (2 Bft) 63,83 %
11.06.2017 07:04 16,3 C 17,2 C 16,7 C 86 % 0 lf 1017,2 hPa 0,0 l/m 0 min 0 min 83 W/m 14,6 km/h (3 Bft) 78,72 %
11.06.2017 07:06 16,4 C 17,2 C 16,7 C 86 % 0 lf 1017,1 hPa 0,0 l/m 0 min 0 min 85 W/m 8,4 km/h (2 Bft) 76,32 %
11.06.2017 07:08 16,4 C 17,2 C 16,7 C 86 % 0 lf 1017,2 hPa 0,0 l/m 0 min 0 min 88 W/m 6,3 km/h (2 Bft) 82,98 %
11.06.2017 07:10 16,4 C 17,8 C 16,7 C 86 % 0 lf 1017,2 hPa 0,0 l/m 0 min 0 min 93 W/m 8,4 km/h (2 Bft) 82,98 %
11.06.2017 07:12 16,5 C 17,8 C 16,7 C 86 % 0 lf 1017,2 hPa 0,0 l/m 0 min 0 min 95 W/m 10,5 km/h (2 Bft) 86,96 %
11.06.2017 07:14 16,6 C 17,8 C 17,2 C 86 % 0 lf 1017,2 hPa 0,0 l/m 0 min 0 min 99 W/m 8,4 km/h (2 Bft) 89,36 %
11.06.2017 07:16 16,6 C 17,8 C 17,2 C 86 % 0 lf 1017,3 hPa 0,0 l/m 0 min 0 min 102 W/m 8,4 km/h (2 Bft) 93,62 %
11.06.2017 07:18 16,6 C 17,8 C 17,2 C 86 % 0 lf 1017,3 hPa 0,0 l/m 0 min 0 min 102 W/m 8,4 km/h (2 Bft) 95,74 %
11.06.2017 07:20 16,7 C 18,3 C 17,2 C 86 % 0 lf 1017,3 hPa 0,0 l/m 0 min 0 min 100 W/m 6,3 km/h (2 Bft) 93,62 %
11.06.2017 07:22 16,7 C 17,8 C 17,2 C 86 % 0 lf 1017,3 hPa 0,0 l/m 0 min 0 min 97 W/m 8,4 km/h (2 Bft) 93,62 %
11.06.2017 07:24 16,7 C 18,3 C 17,2 C 86 % 0 lf 1017,2 hPa 0,0 l/m 0 min 0 min 101 W/m 8,4 km/h (2 Bft) 97,87 %
11.06.2017 07:26 16,8 C 18,3 C 17,2 C 85 % 0 lf 1017,2 hPa 0,0 l/m 0 min 0 min 102 W/m 8,4 km/h (2 Bft) 93,62 %
11.06.2017 07:28 16,8 C 18,3 C 17,2 C 85 % 0 lf 1017,2 hPa 0,0 l/m 0 min 0 min 104 W/m 10,5 km/h (2 Bft) 97,83 %
11.06.2017 07:30 16,8 C 18,3 C 17,8 C 85 % 0 lf 1017,3 hPa 0,0 l/m 0 min 0 min 107 W/m 10,5 km/h (2 Bft) 95,74 %
11.06.2017 07:32 16,9 C 18,3 C 17,8 C 85 % 0 lf 1017,3 hPa 0,0 l/m 0 min 0 min 112 W/m 12,6 km/h (3 Bft) 95,74 %
11.06.2017 07:34 16,9 C 18,9 C 17,8 C 85 % 0 lf 1017,2 hPa 0,0 l/m 0 min 0 min 114 W/m 10,5 km/h (2 Bft) 97,87 %
11.06.2017 07:36 16,9 C 18,3 C 17,8 C 85 % 0 lf 1017,3 hPa 0,0 l/m 0 min 0 min 113 W/m 8,4 km/h (2 Bft) 93,62 %
11.06.2017 07:38 17,0 C 18,9 C 17,8 C 85 % 0 lf 1017,3 hPa 0,0 l/m 0 min 0 min 115 W/m 10,5 km/h (2 Bft) 97,87 %
11.06.2017 07:40 17,1 C 18,9 C 17,8 C 85 % 0 lf 1017,2 hPa 0,0 l/m 0 min 0 min 115 W/m 6,3 km/h (2 Bft) 97,83 %
11.06.2017 07:42 17,1 C 18,3 C 17,8 C 84 % 0 lf 1017,2 hPa 0,0 l/m 0 min 0 min 108 W/m 10,5 km/h (2 Bft) 93,62 %
11.06.2017 07:44 17,1 C 18,3 C 17,8 C 84 % 0 lf 1017,2 hPa 0,0 l/m 0 min 0 min 102 W/m 10,5 km/h (2 Bft) 97,87 %
11.06.2017 07:46 17,2 C 18,9 C 17,8 C 84 % 0 lf 1017,1 hPa 0,0 l/m 0 min 0 min 100 W/m 8,4 km/h (2 Bft) 97,87 %
11.06.2017 07:48 17,2 C 18,9 C 17,8 C 84 % 0 lf 1017,1 hPa 0,0 l/m 0 min 0 min 104 W/m 6,3 km/h (2 Bft) 95,74 %
11.06.2017 07:50 17,3 C 18,9 C 17,8 C 84 % 0 lf 1017,2 hPa 0,0 l/m 0 min 0 min 109 W/m 10,5 km/h (2 Bft) 91,49 %
11.06.2017 07:52 17,3 C 19,4 C 17,8 C 84 % 0 lf 1017,1 hPa 0,0 l/m 0 min 0 min 116 W/m 6,3 km/h (2 Bft) 95,65 %
11.06.2017 07:54 17,3 C 19,4 C 18,3 C 84 % 0 lf 1017,1 hPa 0,0 l/m 0 min 0 min 122 W/m 10,5 km/h (2 Bft) 95,74 %
11.06.2017 07:56 17,4 C 18,9 C 18,3 C 84 % 0 lf 1017,1 hPa 0,0 l/m 0 min 0 min 130 W/m 8,4 km/h (2 Bft) 97,87 %
11.06.2017 07:58 17,4 C 19,4 C 18,3 C 84 % 0 lf 1017,1 hPa 0,0 l/m 0 min 0 min 141 W/m 8,4 km/h (2 Bft) 95,74 %
11.06.2017 08:00 17,5 C 19,4 C 18,3 C 84 % 0 lf 1017,1 hPa 0,0 l/m 0 min 0 min 147 W/m 10,5 km/h (2 Bft) 98,00 %
11.06.2017 08:02 17,6 C 19,4 C 18,9 C 83 % 0 lf 1017,1 hPa 0,0 l/m 0 min 0 min 147 W/m 10,5 km/h (2 Bft) 95,74 %
11.06.2017 08:04 17,6 C 19,4 C 18,9 C 83 % 0 lf 1017,1 hPa 0,0 l/m 0 min 0 min 146 W/m 10,5 km/h (2 Bft) 93,48 %
11.06.2017 08:06 17,6 C 19,4 C 18,9 C 83 % 0 lf 1017,1 hPa 0,0 l/m 0 min 0 min 148 W/m 8,4 km/h (2 Bft) 93,62 %
11.06.2017 08:08 17,7 C 19,4 C 18,9 C 83 % 0 lf 1017,1 hPa 0,0 l/m 0 min 0 min 151 W/m 10,5 km/h (2 Bft) 93,62 %
11.06.2017 08:10 17,7 C 19,4 C 18,9 C 83 % 0 lf 1017,1 hPa 0,0 l/m 0 min 0 min 151 W/m 14,6 km/h (3 Bft) 93,62 %
11.06.2017 08:12 17,8 C 19,4 C 18,9 C 82 % 0 lf 1017,1 hPa 0,0 l/m 0 min 0 min 146 W/m 12,6 km/h (3 Bft) 86,79 %
11.06.2017 08:14 17,8 C 20,0 C 18,9 C 82 % 0 lf 1017,1 hPa 0,0 l/m 0 min 0 min 143 W/m 12,6 km/h (3 Bft) 95,74 %
11.06.2017 08:16 17,9 C 19,4 C 18,9 C 82 % 0 lf 1017,1 hPa 0,0 l/m 0 min 0 min 148 W/m 12,6 km/h (3 Bft) 95,74 %
11.06.2017 08:18 17,9 C 19,4 C 18,9 C 81 % 0 lf 1017,1 hPa 0,0 l/m 0 min 0 min 155 W/m 8,4 km/h (2 Bft) 95,65 %
11.06.2017 08:20 18,0 C 20,0 C 18,9 C 81 % 0 lf 1017,1 hPa 0,0 l/m 0 min 0 min 162 W/m 10,5 km/h (2 Bft) 95,74 %
11.06.2017 08:22 18,1 C 20,0 C 19,4 C 81 % 0 lf 1017,1 hPa 0,0 l/m 0 min 0 min 167 W/m 8,4 km/h (2 Bft) 87,80 %
11.06.2017 08:24 18,1 C 20,0 C 19,4 C 81 % 0 lf 1017,1 hPa 0,0 l/m 0 min 0 min 170 W/m 10,5 km/h (2 Bft) 95,74 %
11.06.2017 08:26 18,1 C 20,0 C 19,4 C 81 % 0 lf 1017,1 hPa 0,0 l/m 0 min 0 min 180 W/m 10,5 km/h (2 Bft) 93,48 %
11.06.2017 08:28 18,2 C 20,0 C 19,4 C 80 % 0 lf 1017,1 hPa 0,0 l/m 0 min 0 min 203 W/m 10,5 km/h (2 Bft) 93,62 %
11.06.2017 08:30 18,2 C 21,1 C 19,4 C 80 % 0 lf 1017,1 hPa 0,0 l/m 2 min 0 min 237 W/m 16,7 km/h (3 Bft) 93,62 %
11.06.2017 08:32 18,3 C 21,1 C 19,4 C 80 % 0 lf 1017,1 hPa 0,0 l/m 2 min 0 min 291 W/m 12,6 km/h (3 Bft) 91,49 %
11.06.2017 08:34 18,4 C 21,7 C 19,4 C 80 % 0 lf 1017,0 hPa 0,0 l/m 2 min 0 min 223 W/m 12,6 km/h (3 Bft) 95,74 %
11.06.2017 08:36 18,4 C 21,7 C 19,4 C 80 % 0 lf 1017,1 hPa 0,0 l/m 0 min 0 min 215 W/m 8,4 km/h (2 Bft) 95,74 %
11.06.2017 08:38 18,5 C 22,2 C 19,4 C 80 % 0 lf 1017,1 hPa 0,0 l/m 2 min 0 min 243 W/m 12,6 km/h (3 Bft) 95,56 %
11.06.2017 08:40 18,6 C 23,9 C 20,0 C 80 % 0 lf 1017,0 hPa 0,0 l/m 2 min 0 min 352 W/m 8,4 km/h (2 Bft) 93,62 %
11.06.2017 08:43 18,7 C 25,6 C 20,0 C 80 % 0 lf 1016,9 hPa 0,0 l/m 3 min 0 min 377 W/m 12,6 km/h (3 Bft) 94,37 %
11.06.2017 08:44 18,8 C 25,0 C 20,0 C 80 % 0 lf 1016,9 hPa 0,0 l/m 1 min 0 min 325 W/m 4,2 km/h (1 Bft) 91,30 %
11.06.2017 08:46 18,9 C 25,0 C 20,0 C 81 % 0 lf 1016,9 hPa 0,0 l/m 2 min 0 min 318 W/m 8,4 km/h (2 Bft) 100,00 %
11.06.2017 08:48 19,1 C 25,0 C 20,0 C 80 % 0 lf 1016,8 hPa 0,0 l/m 2 min 0 min 305 W/m 12,6 km/h (3 Bft) 100,00 %
11.06.2017 08:50 19,2 C 25,0 C 20,0 C 80 % 0 lf 1016,9 hPa 0,0 l/m 2 min 0 min 323 W/m 10,5 km/h (2 Bft) 95,65 %
11.06.2017 08:52 19,3 C 25,0 C 20,0 C 80 % 0 lf 1016,8 hPa 0,0 l/m 2 min 0 min 311 W/m 12,6 km/h (3 Bft) 95,35 %
11.06.2017 08:54 19,4 C 25,0 C 20,6 C 79 % 0 lf 1016,8 hPa 0,0 l/m 2 min 0 min 356 W/m 12,6 km/h (3 Bft) 97,87 %
11.06.2017 08:56 19,6 C 25,0 C 20,6 C 79 % 0 lf 1016,8 hPa 0,0 l/m 2 min 0 min 356 W/m 12,6 km/h (3 Bft) 95,65 %
11.06.2017 08:58 19,7 C 26,1 C 20,6 C 79 % 0 lf 1016,8 hPa 0,0 l/m 2 min 0 min 346 W/m 10,5 km/h (2 Bft) 97,87 %
11.06.2017 09:00 19,9 C 26,7 C 20,6 C 79 % 0 lf 1016,9 hPa 0,0 l/m 2 min 0 min 431 W/m 8,4 km/h (2 Bft) 95,35 %
11.06.2017 09:02 20,1 C 27,2 C 20,6 C 78 % 0 lf 1016,8 hPa 0,0 l/m 2 min 0 min 430 W/m 8,4 km/h (2 Bft) 96,00 %
11.06.2017 09:04 20,2 C 26,1 C 21,1 C 78 % 0 lf 1016,8 hPa 0,0 l/m 2 min 0 min 385 W/m 14,6 km/h (3 Bft) 97,83 %
11.06.2017 09:06 20,4 C 25,6 C 21,1 C 76 % 0 lf 1016,7 hPa 0,0 l/m 2 min 0 min 370 W/m 14,6 km/h (3 Bft) 97,87 %
11.06.2017 09:08 20,5 C 26,1 C 21,1 C 75 % 0 lf 1016,8 hPa 0,0 l/m 2 min 0 min 387 W/m 18,8 km/h (3 Bft) 95,74 %
11.06.2017 09:10 20,7 C 26,1 C 21,1 C 75 % 0 lf 1016,7 hPa 0,0 l/m 2 min 0 min 392 W/m 12,6 km/h (3 Bft) 98,00 %
11.06.2017 09:12 20,8 C 26,7 C 21,1 C 74 % 0 lf 1016,8 hPa 0,0 l/m 2 min 0 min 375 W/m 8,4 km/h (2 Bft) 97,87 %
11.06.2017 09:14 20,9 C 27,8 C 21,7 C 74 % 0 lf 1016,7 hPa 0,0 l/m 2 min 0 min 403 W/m 12,6 km/h (3 Bft) 95,65 %
11.06.2017 09:16 21,1 C 27,8 C 21,7 C 74 % 0 lf 1016,8 hPa 0,0 l/m 2 min 0 min 516 W/m 16,7 km/h (3 Bft) 97,87 %
11.06.2017 09:18 21,2 C 27,2 C 22,2 C 73 % 0 lf 1016,8 hPa 0,0 l/m 2 min 0 min 461 W/m 14,6 km/h (3 Bft) 97,87 %
11.06.2017 09:20 21,4 C 27,2 C 22,2 C 73 % 0 lf 1016,7 hPa 0,0 l/m 2 min 0 min 388 W/m 12,6 km/h (3 Bft) 94,36 %
11.06.2017 09:22 21,6 C 26,7 C 22,2 C 72 % 0 lf 1016,7 hPa 0,0 l/m 2 min 0 min 314 W/m 14,6 km/h (3 Bft) 92,71 %
11.06.2017 09:24 21,7 C 26,1 C 22,2 C 72 % 0 lf 1016,8 hPa 0,0 l/m 2 min 0 min 280 W/m 14,6 km/h (3 Bft) 95,74 %
11.06.2017 09:26 21,8 C 25,6 C 22,2 C 71 % 0 lf 1016,8 hPa 0,0 l/m 2 min 0 min 298 W/m 10,5 km/h (2 Bft) 97,83 %
11.06.2017 09:28 21,9 C 26,7 C 22,2 C 72 % 0 lf 1016,8 hPa 0,0 l/m 2 min 0 min 357 W/m 8,4 km/h (2 Bft) 100,00 %
11.06.2017 09:30 22,0 C 27,2 C 22,2 C 72 % 0 lf 1016,7 hPa 0,0 l/m 2 min 0 min 365 W/m 10,5 km/h (2 Bft) 100,00 %
11.06.2017 09:32 22,1 C 27,2 C 22,2 C 71 % 0 lf 1016,6 hPa 0,0 l/m 2 min 0 min 370 W/m 8,4 km/h (2 Bft) 97,87 %
11.06.2017 09:34 22,2 C 27,2 C 22,2 C 71 % 0 lf 1016,6 hPa 0,0 l/m 2 min 0 min 390 W/m 12,6 km/h (3 Bft) 100,00 %
11.06.2017 09:36 22,3 C 28,3 C 22,8 C 72 % 0 lf 1016,6 hPa 0,0 l/m 2 min 0 min 444 W/m 14,6 km/h (3 Bft) 100,00 %
11.06.2017 09:38 22,4 C 28,3 C 22,8 C 71 % 0 lf 1016,6 hPa 0,0 l/m 2 min 0 min 475 W/m 10,5 km/h (2 Bft) 100,00 %
11.06.2017 09:40 22,5 C 28,9 C 23,3 C 71 % 0 lf 1016,7 hPa 0,0 l/m 2 min 0 min 421 W/m 10,5 km/h (2 Bft) 100,00 %
11.06.2017 09:42 22,7 C 28,9 C 23,3 C 71 % 0 lf 1016,8 hPa 0,0 l/m 2 min 0 min 499 W/m 10,5 km/h (2 Bft) 100,00 %
11.06.2017 09:44 22,7 C 28,3 C 23,9 C 69 % 0 lf 1016,7 hPa 0,0 l/m 2 min 0 min 500 W/m 12,6 km/h (3 Bft) 100,00 %
11.06.2017 09:46 22,8 C 27,8 C 23,9 C 68 % 0 lf 1016,6 hPa 0,0 l/m 2 min 0 min 425 W/m 20,9 km/h (4 Bft) 100,00 %
11.06.2017 09:48 22,9 C 27,2 C 23,3 C 67 % 0 lf 1016,6 hPa 0,0 l/m 2 min 0 min 413 W/m 12,6 km/h (3 Bft) 97,87 %
11.06.2017 09:50 23,0 C 27,8 C 23,3 C 68 % 0 lf 1016,6 hPa 0,0 l/m 2 min 0 min 466 W/m 8,4 km/h (2 Bft) 97,83 %
11.06.2017 09:52 23,1 C 27,8 C 23,9 C 67 % 0 lf 1016,5 hPa 0,0 l/m 2 min 0 min 494 W/m 12,6 km/h (3 Bft) 100,00 %
11.06.2017 09:54 23,2 C 28,3 C 23,9 C 67 % 0 lf 1016,5 hPa 0,0 l/m 2 min 0 min 493 W/m 12,6 km/h (3 Bft) 100,00 %
11.06.2017 09:56 23,3 C 28,9 C 23,9 C 67 % 0 lf 1016,6 hPa 0,0 l/m 2 min 0 min 579 W/m 10,5 km/h (2 Bft) 97,87 %
11.06.2017 09:58 23,3 C 28,9 C 24,4 C 65 % 0 lf 1016,7 hPa 0,0 l/m 2 min 0 min 550 W/m 12,6 km/h (3 Bft) 95,74 %
11.06.2017 10:00 23,4 C 29,4 C 25,6 C 65 % 0 lf 1016,6 hPa 0,0 l/m 2 min 0 min 648 W/m 8,4 km/h (2 Bft) 100,00 %
11.06.2017 10:02 23,6 C 29,4 C 27,2 C 65 % 0 lf 1016,6 hPa 0,0 l/m 2 min 0 min 618 W/m 12,6 km/h (3 Bft) 100,00 %
11.06.2017 10:04 23,7 C 30,6 C 28,3 C 65 % 0 lf 1016,6 hPa 0,0 l/m 2 min 0 min 524 W/m 12,6 km/h (3 Bft) 93,62 %
11.06.2017 10:06 23,8 C 31,1 C 30,0 C 65 % 0 lf 1016,6 hPa 0,0 l/m 2 min 0 min 685 W/m 14,6 km/h (3 Bft) 97,62 %
11.06.2017 10:08 23,9 C 30,0 C 30,6 C 63 % 0 lf 1016,6 hPa 0,0 l/m 2 min 0 min 709 W/m 14,6 km/h (3 Bft) 97,87 %
11.06.2017 10:10 24,0 C 30,6 C 30,0 C 63 % 0 lf 1016,6 hPa 0,0 l/m 2 min 0 min 550 W/m 8,4 km/h (2 Bft) 100,00 %
11.06.2017 10:12 24,2 C 30,6 C 28,9 C 64 % 0 lf 1016,6 hPa 0,0 l/m 2 min 0 min 480 W/m 12,6 km/h (3 Bft) 95,74 %
11.06.2017 10:14 24,3 C 30,0 C 28,9 C 63 % 0 lf 1016,5 hPa 0,0 l/m 2 min 0 min 467 W/m 16,7 km/h (3 Bft) 97,87 %
11.06.2017 10:16 24,4 C 30,0 C 28,9 C 62 % 0 lf 1016,5 hPa 0,0 l/m 2 min 0 min 547 W/m 10,5 km/h (2 Bft) 97,87 %
11.06.2017 10:18 24,5 C 31,7 C 30,0 C 63 % 0 lf 1016,5 hPa 0,0 l/m 2 min 0 min 600 W/m 10,5 km/h (2 Bft) 97,83 %
11.06.2017 10:20 24,6 C 32,8 C 30,6 C 64 % 0 lf 1016,5 hPa 0,0 l/m 2 min 0 min 677 W/m 10,5 km/h (2 Bft) 100,00 %
11.06.2017 10:22 24,7 C 30,6 C 30,6 C 62 % 0 lf 1016,4 hPa 0,0 l/m 2 min 0 min 584 W/m 12,6 km/h (3 Bft) 94,29 %
11.06.2017 10:24 24,8 C 31,7 C 30,0 C 62 % 0 lf 1016,5 hPa 0,0 l/m 2 min 0 min 523 W/m 12,6 km/h (3 Bft) 95,74 %
11.06.2017 10:26 24,9 C 33,3 C 30,6 C 62 % 0 lf 1016,5 hPa 0,0 l/m 2 min 0 min 692 W/m 12,6 km/h (3 Bft) 97,87 %
11.06.2017 10:28 25,1 C 33,3 C 30,6 C 62 % 0 lf 1016,4 hPa 0,0 l/m 2 min 0 min 608 W/m 8,4 km/h (2 Bft) 97,87 %
11.06.2017 10:30 25,1 C 32,2 C 30,6 C 61 % 0 lf 1016,4 hPa 0,0 l/m 2 min 0 min 571 W/m 14,6 km/h (3 Bft) 97,83 %
11.06.2017 10:32 25,3 C 31,1 C 30,6 C 61 % 0 lf 1016,4 hPa 0,0 l/m 2 min 0 min 482 W/m 14,6 km/h (3 Bft) 97,87 %
11.06.2017 10:34 25,3 C 30,6 C 30,0 C 61 % 0 lf 1016,4 hPa 0,0 l/m 2 min 0 min 494 W/m 14,6 km/h (3 Bft) 95,74 %
11.06.2017 10:36 25,4 C 31,7 C 30,0 C 61 % 0 lf 1016,4 hPa 0,0 l/m 2 min 0 min 548 W/m 8,4 km/h (2 Bft) 92,00 %
11.06.2017 10:38 25,5 C 33,3 C 30,0 C 61 % 0 lf 1016,3 hPa 0,0 l/m 2 min 0 min 676 W/m 16,7 km/h (3 Bft) 93,62 %
11.06.2017 10:40 25,6 C 32,2 C 30,6 C 60 % 0 lf 1016,4 hPa 0,0 l/m 2 min 0 min 650 W/m 12,6 km/h (3 Bft) 93,62 %
11.06.2017 10:42 25,7 C 32,2 C 30,6 C 60 % 0 lf 1016,3 hPa 0,0 l/m 2 min 0 min 670 W/m 12,6 km/h (3 Bft) 95,65 %
11.06.2017 10:44 25,8 C 32,2 C 31,1 C 60 % 0 lf 1016,3 hPa 0,0 l/m 2 min 0 min 712 W/m 14,6 km/h (3 Bft) 93,62 %
11.06.2017 10:46 25,9 C 31,7 C 31,7 C 60 % 0 lf 1016,3 hPa 0,0 l/m 2 min 0 min 650 W/m 12,6 km/h (3 Bft) 91,49 %
11.06.2017 10:48 26,0 C 31,1 C 31,7 C 59 % 0 lf 1016,3 hPa 0,0 l/m 2 min 0 min 632 W/m 12,6 km/h (3 Bft) 93,62 %
11.06.2017 10:50 26,1 C 31,1 C 32,2 C 58 % 0 lf 1016,3 hPa 0,0 l/m 2 min 0 min 637 W/m 10,5 km/h (2 Bft) 95,74 %
11.06.2017 10:52 26,1 C 31,7 C 32,2 C 60 % 0 lf 1016,3 hPa 0,0 l/m 2 min 0 min 603 W/m 18,8 km/h (3 Bft) 95,83 %
11.06.2017 10:54 26,2 C 32,8 C 32,2 C 60 % 0 lf 1016,3 hPa 0,0 l/m 2 min 0 min 695 W/m 12,6 km/h (3 Bft) 95,74 %
11.06.2017 10:56 26,3 C 32,2 C 32,8 C 59 % 0 lf 1016,3 hPa 0,0 l/m 2 min 0 min 702 W/m 10,5 km/h (2 Bft) 95,74 %
11.06.2017 10:58 26,3 C 32,2 C 32,8 C 59 % 0 lf 1016,3 hPa 0,0 l/m 2 min 0 min 657 W/m 8,4 km/h (2 Bft) 91,49 %
11.06.2017 11:00 26,4 C 32,2 C 32,8 C 58 % 0 lf 1016,3 hPa 0,0 l/m 2 min 0 min 684 W/m 16,7 km/h (3 Bft) 91,67 %
11.06.2017 11:02 26,5 C 33,9 C 33,3 C 60 % 0 lf 1016,3 hPa 0,0 l/m 2 min 0 min 698 W/m 12,6 km/h (3 Bft) 91,49 %
11.06.2017 11:04 26,6 C 33,9 C 32,8 C 58 % 0 lf 1016,2 hPa 0,0 l/m 2 min 0 min 672 W/m 16,7 km/h (3 Bft) 93,48 %
11.06.2017 11:06 26,7 C 34,4 C 33,3 C 60 % 0 lf 1016,3 hPa 0,0 l/m 2 min 0 min 714 W/m 14,6 km/h (3 Bft) 91,84 %
11.06.2017 11:08 26,8 C 34,4 C 33,9 C 58 % 0 lf 1016,2 hPa 0,0 l/m 2 min 0 min 707 W/m 10,5 km/h (2 Bft) 91,49 %
11.06.2017 11:10 26,9 C 34,4 C 33,9 C 57 % 0 lf 1016,1 hPa 0,0 l/m 2 min 0 min 758 W/m 12,6 km/h (3 Bft) 93,48 %
11.06.2017 11:12 27,0 C 33,9 C 33,9 C 57 % 0 lf 1016,2 hPa 0,0 l/m 2 min 0 min 752 W/m 12,6 km/h (3 Bft) 95,74 %
11.06.2017 11:14 27,1 C 33,3 C 34,4 C 56 % 0 lf 1016,1 hPa 0,0 l/m 2 min 0 min 728 W/m 12,6 km/h (3 Bft) 93,62 %
11.06.2017 11:16 27,1 C 33,3 C 34,4 C 57 % 0 lf 1016,2 hPa 0,0 l/m 2 min 0 min 671 W/m 8,4 km/h (2 Bft) 93,62 %
11.06.2017 11:18 27,2 C 35,0 C 34,4 C 57 % 0 lf 1016,1 hPa 0,0 l/m 2 min 0 min 819 W/m 10,5 km/h (2 Bft) 89,36 %
11.06.2017 11:20 27,3 C 35,0 C 35,0 C 57 % 0 lf 1016,1 hPa 0,0 l/m 2 min 0 min 803 W/m 12,6 km/h (3 Bft) 97,87 %
11.06.2017 11:22 27,4 C 35,0 C 35,0 C 57 % 0 lf 1016,1 hPa 0,0 l/m 2 min 0 min 832 W/m 10,5 km/h (2 Bft) 94,29 %
11.06.2017 11:24 27,6 C 35,0 C 33,9 C 57 % 0 lf 1016,0 hPa 0,0 l/m 2 min 0 min 794 W/m 12,6 km/h (3 Bft) 95,74 %
11.06.2017 11:26 27,7 C 33,9 C 33,3 C 55 % 0 lf 1015,9 hPa 0,0 l/m 2 min 0 min 841 W/m 8,4 km/h (2 Bft) 93,48 %
11.06.2017 11:28 27,7 C 34,4 C 32,2 C 56 % 0 lf 1015,9 hPa 0,0 l/m 2 min 0 min 722 W/m 12,6 km/h (3 Bft) 91,49 %
11.06.2017 11:30 27,8 C 32,8 C 31,7 C 55 % 0 lf 1015,9 hPa 0,0 l/m 2 min 0 min 603 W/m 18,8 km/h (3 Bft) 95,74 %
11.06.2017 11:32 27,8 C 32,8 C 31,1 C 56 % 0 lf 1015,8 hPa 0,0 l/m 2 min 0 min 625 W/m 23,0 km/h (4 Bft) 93,62 %
11.06.2017 11:34 27,9 C 32,8 C 30,6 C 55 % 0 lf 1015,8 hPa 0,0 l/m 2 min 0 min 560 W/m 18,8 km/h (3 Bft) 97,87 %
11.06.2017 11:36 27,9 C 32,8 C 30,6 C 55 % 0 lf 1015,7 hPa 0,0 l/m 2 min 0 min 577 W/m 14,6 km/h (3 Bft) 96,30 %
11.06.2017 11:38 27,9 C 33,3 C 31,1 C 55 % 0 lf 1015,8 hPa 0,0 l/m 2 min 0 min 632 W/m 12,6 km/h (3 Bft) 93,62 %
11.06.2017 11:40 27,9 C 33,9 C 32,8 C 55 % 0 lf 1015,7 hPa 0,0 l/m 2 min 0 min 771 W/m 18,8 km/h (3 Bft) 95,65 %
11.06.2017 11:42 27,9 C 34,4 C 32,8 C 56 % 0 lf 1015,7 hPa 0,0 l/m 2 min 0 min 771 W/m 14,6 km/h (3 Bft) 93,62 %
11.06.2017 11:44 27,9 C 34,4 C 32,8 C 54 % 0 lf 1015,6 hPa 0,0 l/m 2 min 0 min 658 W/m 20,9 km/h (4 Bft) 97,87 %
11.06.2017 11:46 28,0 C 33,9 C 33,3 C 54 % 0 lf 1015,6 hPa 0,0 l/m 2 min 0 min 620 W/m 14,6 km/h (3 Bft) 95,74 %
11.06.2017 11:48 28,0 C 33,9 C 33,3 C 55 % 0 lf 1015,7 hPa 0,0 l/m 2 min 0 min 756 W/m 14,6 km/h (3 Bft) 95,45 %
11.06.2017 11:50 28,1 C 34,4 C 33,3 C 56 % 0 lf 1015,6 hPa 0,0 l/m 2 min 0 min 819 W/m 14,6 km/h (3 Bft) 93,36 %
11.06.2017 11:52 28,1 C 35,0 C 33,9 C 55 % 0 lf 1015,6 hPa 0,0 l/m 2 min 0 min 760 W/m 6,3 km/h (2 Bft) 96,99 %
11.06.2017 11:54 28,2 C 36,1 C 34,4 C 55 % 0 lf 1015,6 hPa 0,0 l/m 2 min 0 min 793 W/m 16,7 km/h (3 Bft) 40,16 %
11.06.2017 11:56 28,2 C 35,0 C 33,9 C 55 % 0 lf 1015,5 hPa 0,0 l/m 2 min 0 min 715 W/m 18,8 km/h (3 Bft) 97,87 %
11.06.2017 11:58 28,3 C 34,4 C 33,3 C 54 % 0 lf 1015,5 hPa 0,0 l/m 2 min 0 min 700 W/m 14,6 km/h (3 Bft) 97,87 %
11.06.2017 12:00 28,4 C 35,0 C 33,3 C 54 % 0 lf 1015,5 hPa 0,0 l/m 2 min 0 min 796 W/m 20,9 km/h (4 Bft) 97,87 %
11.06.2017 12:02 28,4 C 35,6 C 33,9 C 52 % 0 lf 1015,4 hPa 0,0 l/m 2 min 0 min 836 W/m 18,8 km/h (3 Bft) 95,74 %
11.06.2017 12:04 28,4 C 36,7 C 33,9 C 51 % 0 lf 1015,4 hPa 0,0 l/m 2 min 0 min 782 W/m 14,6 km/h (3 Bft) 97,87 %
11.06.2017 12:06 28,4 C 37,2 C 35,6 C 53 % 0 lf 1015,4 hPa 0,0 l/m 2 min 0 min 832 W/m 18,8 km/h (3 Bft) 93,75 %
11.06.2017 12:08 28,5 C 34,4 C 36,1 C 53 % 0 lf 1015,5 hPa 0,0 l/m 2 min 0 min 848 W/m 16,7 km/h (3 Bft) 100,00 %
11.06.2017 12:10 28,6 C 33,9 C 35,0 C 52 % 0 lf 1015,4 hPa 0,0 l/m 2 min 0 min 716 W/m 14,6 km/h (3 Bft) 100,00 %
11.06.2017 12:12 28,6 C 34,4 C 34,4 C 52 % 0 lf 1015,4 hPa 0,0 l/m 2 min 0 min 598 W/m 14,6 km/h (3 Bft) 100,00 %
11.06.2017 12:14 28,6 C 35,6 C 35,0 C 53 % 0 lf 1015,4 hPa 0,0 l/m 2 min 0 min 753 W/m 18,8 km/h (3 Bft) 97,87 %
11.06.2017 12:16 28,7 C 35,0 C 34,4 C 52 % 0 lf 1015,3 hPa 0,0 l/m 2 min 0 min 774 W/m 18,8 km/h (3 Bft) 97,87 %
11.06.2017 12:18 28,7 C 35,0 C 35,0 C 53 % 0 lf 1015,3 hPa 0,0 l/m 2 min 0 min 641 W/m 14,6 km/h (3 Bft) 97,87 %
11.06.2017 12:20 28,8 C 35,0 C 34,4 C 52 % 0 lf 1015,3 hPa 0,0 l/m 0 min 0 min 255 W/m 23,0 km/h (4 Bft) 97,83 %
11.06.2017 12:22 28,8 C 34,4 C 34,4 C 51 % 0 lf 1015,2 hPa 0,0 l/m 2 min 0 min 790 W/m 16,7 km/h (3 Bft) 100,00 %
11.06.2017 12:24 28,8 C 33,9 C 34,4 C 51 % 0 lf 1015,2 hPa 0,0 l/m 2 min 0 min 777 W/m 25,1 km/h (4 Bft) 100,00 %
11.06.2017 12:26 28,8 C 33,3 C 34,4 C 51 % 0 lf 1015,3 hPa 0,0 l/m 2 min 0 min 804 W/m 25,1 km/h (4 Bft) 100,00 %
11.06.2017 12:28 28,8 C 34,4 C 34,4 C 52 % 0 lf 1015,3 hPa 0,0 l/m 2 min 0 min 838 W/m 23,0 km/h (4 Bft) 100,00 %
11.06.2017 12:30 28,9 C 35,0 C 35,0 C 52 % 0 lf 1015,2 hPa 0,0 l/m 2 min 0 min 844 W/m 16,7 km/h (3 Bft) 97,87 %
11.06.2017 12:32 28,9 C 35,0 C 34,4 C 51 % 0 lf 1015,3 hPa 0,0 l/m 2 min 0 min 751 W/m 16,7 km/h (3 Bft) 100,00 %
11.06.2017 12:34 28,9 C 34,4 C 34,4 C 52 % 0 lf 1015,2 hPa 0,0 l/m 2 min 0 min 737 W/m 20,9 km/h (4 Bft) 100,00 %
11.06.2017 12:36 29,0 C 34,4 C 33,3 C 50 % 0 lf 1015,2 hPa 0,0 l/m 2 min 0 min 820 W/m 18,8 km/h (3 Bft) 97,62 %
11.06.2017 12:38 28,9 C 33,9 C 32,2 C 49 % 0 lf 1015,1 hPa 0,0 l/m 2 min 0 min 819 W/m 16,7 km/h (3 Bft) 95,74 %
11.06.2017 12:40 28,9 C 34,4 C 32,2 C 51 % 0 lf 1015,1 hPa 0,0 l/m 2 min 0 min 766 W/m 18,8 km/h (3 Bft) 100,00 %
11.06.2017 12:42 28,9 C 36,1 C 32,2 C 53 % 0 lf 1015,1 hPa 0,0 l/m 2 min 0 min 813 W/m 18,8 km/h (3 Bft) 97,87 %
11.06.2017 12:44 29,0 C 35,0 C 31,7 C 51 % 0 lf 1015,1 hPa 0,0 l/m 2 min 0 min 731 W/m 18,8 km/h (3 Bft) 100,00 %
11.06.2017 12:46 29,0 C 35,0 C 31,1 C 51 % 0 lf 1015,1 hPa 0,0 l/m 2 min 0 min 698 W/m 16,7 km/h (3 Bft) 100,00 %
11.06.2017 12:48 29,1 C 36,1 C 31,1 C 51 % 0 lf 1015,0 hPa 0,0 l/m 2 min 0 min 832 W/m 16,7 km/h (3 Bft) 97,87 %
11.06.2017 12:50 29,1 C 36,7 C 31,1 C 51 % 0 lf 1015,0 hPa 0,0 l/m 2 min 0 min 904 W/m 12,6 km/h (3 Bft) 97,87 %
11.06.2017 12:52 29,2 C 36,1 C 31,1 C 51 % 0 lf 1015,0 hPa 0,0 l/m 2 min 0 min 896 W/m 20,9 km/h (4 Bft) 100,00 %
11.06.2017 12:54 29,2 C 36,7 C 31,7 C 51 % 0 lf 1015,0 hPa 0,0 l/m 2 min 0 min 899 W/m 23,0 km/h (4 Bft) 100,00 %
11.06.2017 12:56 29,3 C 37,2 C 31,1 C 51 % 0 lf 1015,0 hPa 0,0 l/m 2 min 0 min 860 W/m 18,8 km/h (3 Bft) 91,49 %
11.06.2017 12:58 29,3 C 37,2 C 31,7 C 51 % 0 lf 1014,9 hPa 0,0 l/m 2 min 0 min 836 W/m 25,1 km/h (4 Bft) 97,87 %
11.06.2017 13:00 29,4 C 37,2 C 31,7 C 51 % 0 lf 1014,9 hPa 0,0 l/m 2 min 0 min 874 W/m 20,9 km/h (4 Bft) 97,87 %
11.06.2017 13:02 29,4 C 36,7 C 32,8 C 51 % 0 lf 1014,9 hPa 0,0 l/m 2 min 0 min 882 W/m 16,7 km/h (3 Bft) 97,83 %
11.06.2017 13:04 29,5 C 36,7 C 33,9 C 50 % 0 lf 1014,8 hPa 0,0 l/m 2 min 0 min 889 W/m 20,9 km/h (4 Bft) 97,87 %
11.06.2017 13:06 29,6 C 36,7 C 33,9 C 49 % 0 lf 1014,7 hPa 0,0 l/m 2 min 0 min 869 W/m 25,1 km/h (4 Bft) 96,00 %
11.06.2017 13:08 29,6 C 36,7 C 34,4 C 50 % 0 lf 1014,7 hPa 0,0 l/m 2 min 0 min 880 W/m 23,0 km/h (4 Bft) 97,87 %
11.06.2017 13:10 29,6 C 35,0 C 33,3 C 50 % 0 lf 1014,8 hPa 0,0 l/m 2 min 0 min 805 W/m 29,3 km/h (5 Bft) 97,87 %
11.06.2017 13:12 29,6 C 34,4 C 33,3 C 50 % 0 lf 1014,8 hPa 0,0 l/m 2 min 0 min 744 W/m 23,0 km/h (4 Bft) 93,62 %
11.06.2017 13:14 29,5 C 34,4 C 33,3 C 50 % 0 lf 1014,8 hPa 0,0 l/m 2 min 0 min 755 W/m 25,1 km/h (4 Bft) 93,48 %
11.06.2017 13:16 29,4 C 35,6 C 32,2 C 50 % 0 lf 1014,8 hPa 0,0 l/m 2 min 0 min 830 W/m 25,1 km/h (4 Bft) 93,62 %
11.06.2017 13:18 29,4 C 36,1 C 31,7 C 50 % 0 lf 1014,7 hPa 0,0 l/m 2 min 0 min 885 W/m 16,7 km/h (3 Bft) 95,74 %
11.06.2017 13:20 29,4 C 37,2 C 31,7 C 50 % 0 lf 1014,8 hPa 0,0 l/m 2 min 0 min 921 W/m 25,1 km/h (4 Bft) 93,62 %
11.06.2017 13:22 29,4 C 35,6 C 31,1 C 49 % 0 lf 1014,7 hPa 0,0 l/m 2 min 0 min 909 W/m 20,9 km/h (4 Bft) 95,92 %
11.06.2017 13:24 29,5 C 36,1 C 31,1 C 53 % 0 lf 1014,7 hPa 0,0 l/m 2 min 0 min 895 W/m 20,9 km/h (4 Bft) 93,62 %
11.06.2017 13:26 29,6 C 35,6 C 31,1 C 50 % 0 lf 1014,7 hPa 0,0 l/m 2 min 0 min 895 W/m 18,8 km/h (3 Bft) 93,62 %
11.06.2017 13:28 29,6 C 36,1 C 31,1 C 50 % 0 lf 1014,6 hPa 0,0 l/m 2 min 0 min 893 W/m 20,9 km/h (4 Bft) 93,62 %
11.06.2017 13:30 29,6 C 36,1 C 31,1 C 50 % 0 lf 1014,6 hPa 0,0 l/m 2 min 0 min 911 W/m 25,1 km/h (4 Bft) 95,65 %
11.06.2017 13:32 29,6 C 35,0 C 30,6 C 50 % 0 lf 1014,5 hPa 0,0 l/m 2 min 0 min 914 W/m 18,8 km/h (3 Bft) 95,74 %
11.06.2017 13:34 29,6 C 35,6 C 30,6 C 51 % 0 lf 1014,4 hPa 0,0 l/m 2 min 0 min 904 W/m 25,1 km/h (4 Bft) 95,74 %
11.06.2017 13:36 29,6 C 36,1 C 30,6 C 51 % 0 lf 1014,4 hPa 0,0 l/m 2 min 0 min 893 W/m 20,9 km/h (4 Bft) 93,62 %
11.06.2017 13:38 29,6 C 35,0 C 30,6 C 49 % 0 lf 1014,4 hPa 0,0 l/m 2 min 0 min 880 W/m 27,2 km/h (4 Bft) 95,74 %
11.06.2017 13:40 29,6 C 35,0 C 30,6 C 49 % 0 lf 1014,4 hPa 0,0 l/m 2 min 0 min 886 W/m 23,0 km/h (4 Bft) 93,62 %
11.06.2017 13:42 29,6 C 36,1 C 30,6 C 50 % 0 lf 1014,4 hPa 0,0 l/m 2 min 0 min 888 W/m 16,7 km/h (3 Bft) 95,65 %
11.06.2017 13:44 29,7 C 37,2 C 30,6 C 51 % 0 lf 1014,3 hPa 0,0 l/m 2 min 0 min 885 W/m 10,5 km/h (2 Bft) 95,74 %
11.06.2017 13:46 29,8 C 38,3 C 30,6 C 51 % 0 lf 1014,3 hPa 0,0 l/m 2 min 0 min 889 W/m 18,8 km/h (3 Bft) 95,74 %
11.06.2017 13:48 29,8 C 37,2 C 31,1 C 49 % 0 lf 1014,2 hPa 0,0 l/m 2 min 0 min 891 W/m 8,4 km/h (2 Bft) 95,74 %
11.06.2017 13:50 29,9 C 37,2 C 31,1 C 49 % 0 lf 1014,2 hPa 0,0 l/m 2 min 0 min 885 W/m 14,6 km/h (3 Bft) 91,49 %
11.06.2017 13:52 30,0 C 35,0 C 31,1 C 50 % 0 lf 1014,1 hPa 0,0 l/m 2 min 0 min 882 W/m 23,0 km/h (4 Bft) 95,12 %
11.06.2017 13:54 30,0 C 35,0 C 31,1 C 49 % 0 lf 1014,1 hPa 0,0 l/m 2 min 0 min 879 W/m 16,7 km/h (3 Bft) 93,62 %
11.06.2017 13:56 30,0 C 34,4 C 30,6 C 49 % 0 lf 1014,1 hPa 0,0 l/m 2 min 0 min 865 W/m 16,7 km/h (3 Bft) 93,62 %
11.06.2017 13:58 29,9 C 33,3 C 30,0 C 49 % 0 lf 1014,1 hPa 0,0 l/m 0 min 0 min 367 W/m 18,8 km/h (3 Bft) 95,74 %
11.06.2017 14:00 29,9 C 35,0 C 31,1 C 50 % 0 lf 1014,1 hPa 0,0 l/m 2 min 0 min 794 W/m 12,6 km/h (3 Bft) 95,74 %
11.06.2017 14:02 29,9 C 35,6 C 31,1 C 51 % 0 lf 1014,1 hPa 0,0 l/m 2 min 0 min 897 W/m 27,2 km/h (4 Bft) 97,83 %
11.06.2017 14:04 29,9 C 35,0 C 31,7 C 50 % 0 lf 1014,1 hPa 0,0 l/m 2 min 0 min 872 W/m 25,1 km/h (4 Bft) 93,62 %
11.06.2017 14:06 29,9 C 36,1 C 33,9 C 51 % 0 lf 1014,1 hPa 0,0 l/m 2 min 0 min 882 W/m 23,0 km/h (4 Bft) 96,00 %
11.06.2017 14:08 29,9 C 35,6 C 34,4 C 50 % 0 lf 1014,0 hPa 0,0 l/m 2 min 0 min 888 W/m 18,8 km/h (3 Bft) 97,87 %
11.06.2017 14:10 29,9 C 36,7 C 35,6 C 49 % 0 lf 1014,0 hPa 0,0 l/m 2 min 0 min 900 W/m 23,0 km/h (4 Bft) 97,87 %
11.06.2017 14:12 29,9 C 35,6 C 35,6 C 50 % 0 lf 1014,0 hPa 0,0 l/m 2 min 0 min 902 W/m 16,7 km/h (3 Bft) 95,65 %
11.06.2017 14:14 29,9 C 34,4 C 35,6 C 50 % 0 lf 1013,8 hPa 0,0 l/m 2 min 0 min 901 W/m 20,9 km/h (4 Bft) 100,00 %
11.06.2017 14:16 29,9 C 33,3 C 36,1 C 49 % 0 lf 1013,8 hPa 0,0 l/m 2 min 0 min 902 W/m 25,1 km/h (4 Bft) 97,87 %
11.06.2017 14:18 29,9 C 35,0 C 36,7 C 51 % 0 lf 1013,8 hPa 0,0 l/m 2 min 0 min 901 W/m 25,1 km/h (4 Bft) 100,00 %
11.06.2017 14:20 29,9 C 33,9 C 36,7 C 50 % 0 lf 1013,9 hPa 0,0 l/m 2 min 0 min 896 W/m 25,1 km/h (4 Bft) 93,62 %
11.06.2017 14:22 29,9 C 35,0 C 36,7 C 49 % 0 lf 1013,7 hPa 0,0 l/m 2 min 0 min 892 W/m 18,8 km/h (3 Bft) 97,87 %
11.06.2017 14:24 29,9 C 35,0 C 36,7 C 50 % 0 lf 1013,6 hPa 0,0 l/m 2 min 0 min 725 W/m 14,6 km/h (3 Bft) 100,00 %
11.06.2017 14:26 29,9 C 35,0 C 36,7 C 49 % 0 lf 1013,7 hPa 0,0 l/m 2 min 0 min 803 W/m 18,8 km/h (3 Bft) 98,00 %
11.06.2017 14:28 30,0 C 36,1 C 37,8 C 51 % 0 lf 1013,6 hPa 0,0 l/m 2 min 0 min 891 W/m 16,7 km/h (3 Bft) 97,83 %
11.06.2017 14:30 30,1 C 35,6 C 38,3 C 50 % 0 lf 1013,5 hPa 0,0 l/m 2 min 0 min 783 W/m 12,6 km/h (3 Bft) 97,87 %
11.06.2017 14:32 30,1 C 35,6 C 38,9 C 50 % 0 lf 1013,5 hPa 0,0 l/m 2 min 0 min 738 W/m 25,1 km/h (4 Bft) 100,00 %
11.06.2017 14:34 30,2 C 35,0 C 38,3 C 49 % 0 lf 1013,5 hPa 0,0 l/m 2 min 0 min 905 W/m 25,1 km/h (4 Bft) 100,00 %
11.06.2017 14:36 30,2 C 35,0 C 38,9 C 49 % 0 lf 1013,4 hPa 0,0 l/m 2 min 0 min 922 W/m 27,2 km/h (4 Bft) 95,74 %
11.06.2017 14:38 30,2 C 35,6 C 39,4 C 49 % 0 lf 1013,4 hPa 0,0 l/m 2 min 0 min 919 W/m 27,2 km/h (4 Bft) 97,87 %
11.06.2017 14:40 30,2 C 36,1 C 39,4 C 49 % 0 lf 1013,3 hPa 0,0 l/m 2 min 0 min 941 W/m 23,0 km/h (4 Bft) 100,00 %
11.06.2017 14:42 30,3 C 36,7 C 40,0 C 50 % 0 lf 1013,3 hPa 0,0 l/m 2 min 0 min 975 W/m 18,8 km/h (3 Bft) 100,00 %
11.06.2017 14:44 30,4 C 36,7 C 40,0 C 49 % 0 lf 1013,2 hPa 0,0 l/m 2 min 0 min 1001 W/m 14,6 km/h (3 Bft) 97,87 %
11.06.2017 14:46 30,4 C 36,7 C 40,6 C 49 % 0 lf 1013,2 hPa 0,0 l/m 2 min 0 min 917 W/m 14,6 km/h (3 Bft) 97,87 %
11.06.2017 14:48 30,6 C 37,2 C 41,7 C 49 % 0 lf 1013,2 hPa 0,0 l/m 2 min 0 min 1078 W/m 12,6 km/h (3 Bft) 97,87 %
11.06.2017 14:50 30,7 C 38,3 C 41,7 C 49 % 0 lf 1013,2 hPa 0,0 l/m 2 min 0 min 1149 W/m 14,6 km/h (3 Bft) 95,74 %
11.06.2017 14:52 30,8 C 36,7 C 39,4 C 48 % 0 lf 1013,2 hPa 0,0 l/m 2 min 0 min 877 W/m 25,1 km/h (4 Bft) 95,12 %
11.06.2017 14:54 30,8 C 35,6 C 37,2 C 48 % 0 lf 1013,2 hPa 0,0 l/m 2 min 0 min 780 W/m 18,8 km/h (3 Bft) 91,49 %
11.06.2017 14:56 30,8 C 35,0 C 36,1 C 48 % 0 lf 1013,1 hPa 0,0 l/m 2 min 0 min 450 W/m 18,8 km/h (3 Bft) 93,62 %
11.06.2017 14:58 30,8 C 34,4 C 35,0 C 47 % 0 lf 1013,1 hPa 0,0 l/m 2 min 0 min 508 W/m 12,6 km/h (3 Bft) 95,74 %
11.06.2017 15:00 30,8 C 35,0 C 35,0 C 48 % 0 lf 1013,1 hPa 0,0 l/m 2 min 0 min 494 W/m 18,8 km/h (3 Bft) 95,65 %
11.06.2017 15:02 30,7 C 33,9 C 34,4 C 48 % 0 lf 1013,0 hPa 0,0 l/m 2 min 0 min 434 W/m 20,9 km/h (4 Bft) 95,74 %
11.06.2017 15:04 30,6 C 32,2 C 33,3 C 47 % 0 lf 1013,0 hPa 0,0 l/m 0 min 0 min 367 W/m 20,9 km/h (4 Bft) 95,74 %
11.06.2017 15:06 30,5 C 32,2 C 32,2 C 49 % 0 lf 1013,0 hPa 0,0 l/m 0 min 0 min 297 W/m 14,6 km/h (3 Bft) 96,00 %
11.06.2017 15:08 30,4 C 32,8 C 33,3 C 48 % 0 lf 1013,0 hPa 0,0 l/m 0 min 0 min 364 W/m 12,6 km/h (3 Bft) 91,49 %
11.06.2017 15:10 30,4 C 33,9 C 35,0 C 49 % 0 lf 1012,9 hPa 0,0 l/m 2 min 0 min 501 W/m 16,7 km/h (3 Bft) 95,65 %
11.06.2017 15:12 30,4 C 35,6 C 36,7 C 49 % 0 lf 1013,0 hPa 0,0 l/m 2 min 0 min 501 W/m 18,8 km/h (3 Bft) 93,62 %
11.06.2017 15:14 30,4 C 34,4 C 37,8 C 49 % 0 lf 1013,0 hPa 0,0 l/m 2 min 2 min 510 W/m 20,9 km/h (4 Bft) 95,74 %
11.06.2017 15:16 30,5 C 34,4 C 36,7 C 50 % 0 lf 1012,9 hPa 0,0 l/m 2 min 0 min 534 W/m 10,5 km/h (2 Bft) 95,74 %
11.06.2017 15:18 30,5 C 34,4 C 36,7 C 49 % 0 lf 1012,9 hPa 0,0 l/m 2 min 0 min 534 W/m 23,0 km/h (4 Bft) 97,87 %
11.06.2017 15:20 30,5 C 33,9 C 36,1 C 48 % 0 lf 1012,9 hPa 0,0 l/m 2 min 0 min 531 W/m 20,9 km/h (4 Bft) 95,74 %
11.06.2017 15:22 30,5 C 33,9 C 36,1 C 49 % 0 lf 1012,9 hPa 0,0 l/m 2 min 0 min 522 W/m 23,0 km/h (4 Bft) 97,83 %
11.06.2017 15:24 30,4 C 32,8 C 35,0 C 48 % 0 lf 1012,8 hPa 0,0 l/m 2 min 0 min 466 W/m 16,7 km/h (3 Bft) 97,87 %
11.06.2017 15:26 30,4 C 33,9 C 35,6 C 50 % 0 lf 1012,8 hPa 0,0 l/m 2 min 0 min 410 W/m 10,5 km/h (2 Bft) 95,74 %
11.06.2017 15:28 30,5 C 35,0 C 36,7 C 50 % 0 lf 1012,8 hPa 0,0 l/m 2 min 0 min 574 W/m 10,5 km/h (2 Bft) 93,62 %
11.06.2017 15:30 30,6 C 34,4 C 36,7 C 49 % 0 lf 1012,7 hPa 0,0 l/m 2 min 0 min 653 W/m 18,8 km/h (3 Bft) 95,74 %
11.06.2017 15:32 30,5 C 32,8 C 35,0 C 48 % 0 lf 1012,7 hPa 0,0 l/m 2 min 0 min 445 W/m 25,1 km/h (4 Bft) 97,87 %
11.06.2017 15:34 30,5 C 32,8 C 34,4 C 49 % 0 lf 1012,7 hPa 0,0 l/m 2 min 0 min 521 W/m 23,0 km/h (4 Bft) 97,83 %
11.06.2017 15:36 30,4 C 33,9 C 35,6 C 50 % 0 lf 1012,7 hPa 0,0 l/m 2 min 0 min 709 W/m 18,8 km/h (3 Bft) 98,00 %
11.06.2017 15:38 30,4 C 34,4 C 37,2 C 49 % 0 lf 1012,7 hPa 0,0 l/m 2 min 0 min 926 W/m 23,0 km/h (4 Bft) 97,87 %
11.06.2017 15:40 30,4 C 33,9 C 36,7 C 49 % 0 lf 1012,6 hPa 0,0 l/m 2 min 0 min 897 W/m 18,8 km/h (3 Bft) 97,83 %
11.06.2017 15:42 30,4 C 33,3 C 36,1 C 49 % 0 lf 1012,6 hPa 0,0 l/m 0 min 0 min 363 W/m 14,6 km/h (3 Bft) 97,87 %
11.06.2017 15:44 30,4 C 33,9 C 37,2 C 49 % 0 lf 1012,6 hPa 0,0 l/m 2 min 0 min 519 W/m 14,6 km/h (3 Bft) 95,74 %
11.06.2017 15:46 30,4 C 33,9 C 36,7 C 49 % 0 lf 1012,5 hPa 0,0 l/m 2 min 0 min 713 W/m 12,6 km/h (3 Bft) 97,87 %
11.06.2017 15:48 30,4 C 33,3 C 36,1 C 49 % 0 lf 1012,5 hPa 0,0 l/m 0 min 0 min 297 W/m 10,5 km/h (2 Bft) 97,87 %
11.06.2017 15:50 30,4 C 35,0 C 38,3 C 51 % 0 lf 1012,5 hPa 0,0 l/m 2 min 0 min 845 W/m 12,6 km/h (3 Bft) 97,14 %
11.06.2017 15:52 30,6 C 36,1 C 39,4 C 50 % 0 lf 1012,5 hPa 0,0 l/m 2 min 0 min 705 W/m 16,7 km/h (3 Bft) 97,87 %
11.06.2017 15:54 30,7 C 35,6 C 38,3 C 50 % 0 lf 1012,3 hPa 0,0 l/m 2 min 0 min 783 W/m 16,7 km/h (3 Bft) 97,83 %
11.06.2017 15:56 30,7 C 35,0 C 38,3 C 49 % 0 lf 1012,3 hPa 0,0 l/m 2 min 0 min 408 W/m 18,8 km/h (3 Bft) 97,87 %
11.06.2017 15:58 30,8 C 33,9 C 36,7 C 48 % 0 lf 1012,3 hPa 0,0 l/m 0 min 0 min 346 W/m 29,3 km/h (5 Bft) 97,87 %
11.06.2017 16:00 30,7 C 32,8 C 35,6 C 48 % 0 lf 1012,2 hPa 0,0 l/m 2 min 0 min 410 W/m 25,1 km/h (4 Bft) 97,87 %
11.06.2017 16:02 30,7 C 32,8 C 35,0 C 48 % 0 lf 1012,2 hPa 0,0 l/m 2 min 0 min 451 W/m 18,8 km/h (3 Bft) 93,62 %
11.06.2017 16:04 30,7 C 32,2 C 34,4 C 48 % 0 lf 1012,2 hPa 0,0 l/m 2 min 0 min 419 W/m 18,8 km/h (3 Bft) 100,00 %
11.06.2017 16:06 30,6 C 32,2 C 33,3 C 48 % 0 lf 1012,2 hPa 0,0 l/m 0 min 0 min 271 W/m 14,6 km/h (3 Bft) 100,00 %
11.06.2017 16:08 30,6 C 32,2 C 32,8 C 49 % 0 lf 1012,3 hPa 0,0 l/m 0 min 0 min 257 W/m 10,5 km/h (2 Bft) 95,74 %
11.06.2017 16:10 30,5 C 32,2 C 32,8 C 48 % 0 lf 1012,3 hPa 0,0 l/m 0 min 0 min 322 W/m 12,6 km/h (3 Bft) 97,83 %
11.06.2017 16:12 30,4 C 32,2 C 32,8 C 48 % 0 lf 1012,4 hPa 0,0 l/m 2 min 0 min 381 W/m 10,5 km/h (2 Bft) 93,62 %
11.06.2017 16:14 30,4 C 31,7 C 32,8 C 49 % 0 lf 1012,3 hPa 0,0 l/m 2 min 0 min 374 W/m 16,7 km/h (3 Bft) 96,00 %
11.06.2017 16:16 30,3 C 31,7 C 32,8 C 50 % 0 lf 1012,4 hPa 0,0 l/m 2 min 0 min 383 W/m 16,7 km/h (3 Bft) 93,62 %
11.06.2017 16:18 30,3 C 31,1 C 32,2 C 50 % 0 lf 1012,3 hPa 0,0 l/m 0 min 0 min 310 W/m 18,8 km/h (3 Bft) 97,87 %
11.06.2017 16:20 30,3 C 31,1 C 31,7 C 50 % 0 lf 1012,2 hPa 0,0 l/m 0 min 0 min 274 W/m 16,7 km/h (3 Bft) 97,83 %
11.06.2017 16:22 30,2 C 31,1 C 31,7 C 51 % 0 lf 1012,2 hPa 0,0 l/m 0 min 0 min 248 W/m 14,6 km/h (3 Bft) 97,87 %
11.06.2017 16:24 30,1 C 30,6 C 31,1 C 50 % 0 lf 1012,2 hPa 0,0 l/m 0 min 0 min 226 W/m 16,7 km/h (3 Bft) 95,74 %
11.06.2017 16:26 30,0 C 30,6 C 30,6 C 50 % 0 lf 1012,2 hPa 0,0 l/m 0 min 0 min 181 W/m 23,0 km/h (4 Bft) 95,74 %
11.06.2017 16:28 29,9 C 30,0 C 30,0 C 50 % 0 lf 1012,2 hPa 0,0 l/m 0 min 0 min 146 W/m 16,7 km/h (3 Bft) 95,74 %
11.06.2017 16:30 29,8 C 29,4 C 29,4 C 50 % 0 lf 1012,2 hPa 0,0 l/m 0 min 0 min 133 W/m 16,7 km/h (3 Bft) 93,62 %
11.06.2017 16:32 29,7 C 29,4 C 28,9 C 50 % 0 lf 1012,2 hPa 0,0 l/m 0 min 0 min 125 W/m 14,6 km/h (3 Bft) 93,48 %
11.06.2017 16:34 29,6 C 29,4 C 28,3 C 50 % 0 lf 1012,1 hPa 0,0 l/m 0 min 0 min 126 W/m 14,6 km/h (3 Bft) 92,00 %
11.06.2017 16:36 29,4 C 29,4 C 28,3 C 50 % 0 lf 1012,1 hPa 0,0 l/m 0 min 0 min 143 W/m 16,7 km/h (3 Bft) 95,12 %
11.06.2017 16:38 29,4 C 30,0 C 28,3 C 51 % 0 lf 1012,0 hPa 0,0 l/m 0 min 0 min 165 W/m 14,6 km/h (3 Bft) 93,62 %
11.06.2017 16:40 29,3 C 29,4 C 28,9 C 51 % 0 lf 1012,1 hPa 0,0 l/m 0 min 0 min 183 W/m 10,5 km/h (2 Bft) 89,36 %
11.06.2017 16:42 29,3 C 30,0 C 28,9 C 51 % 0 lf 1012,1 hPa 0,0 l/m 0 min 0 min 195 W/m 10,5 km/h (2 Bft) 91,49 %
11.06.2017 16:44 29,2 C 30,0 C 28,9 C 52 % 0 lf 1012,2 hPa 0,0 l/m 0 min 0 min 205 W/m 16,7 km/h (3 Bft) 91,49 %
11.06.2017 16:46 29,1 C 30,0 C 28,9 C 52 % 0 lf 1012,2 hPa 0,0 l/m 0 min 0 min 226 W/m 12,6 km/h (3 Bft) 91,30 %
11.06.2017 16:48 29,1 C 30,0 C 29,4 C 52 % 0 lf 1012,2 hPa 0,0 l/m 0 min 0 min 226 W/m 8,4 km/h (2 Bft) 93,62 %
11.06.2017 16:50 29,0 C 30,0 C 29,4 C 53 % 0 lf 1012,2 hPa 0,0 l/m 0 min 0 min 211 W/m 14,6 km/h (3 Bft) 91,49 %
11.06.2017 16:52 28,9 C 30,0 C 28,9 C 53 % 0 lf 1012,1 hPa 0,0 l/m 0 min 0 min 196 W/m 10,5 km/h (2 Bft) 95,74 %
11.06.2017 16:54 28,9 C 30,0 C 28,9 C 54 % 0 lf 1012,1 hPa 0,0 l/m 0 min 0 min 179 W/m 14,6 km/h (3 Bft) 93,62 %
11.06.2017 16:56 28,9 C 29,4 C 28,9 C 52 % 0 lf 1012,1 hPa 0,0 l/m 0 min 0 min 160 W/m 16,7 km/h (3 Bft) 93,48 %
11.06.2017 16:58 28,8 C 29,4 C 28,3 C 53 % 0 lf 1012,1 hPa 0,0 l/m 0 min 0 min 150 W/m 14,6 km/h (3 Bft) 95,74 %
11.06.2017 17:00 28,8 C 29,4 C 28,3 C 52 % 0 lf 1012,2 hPa 0,0 l/m 0 min 0 min 153 W/m 14,6 km/h (3 Bft) 95,74 %
11.06.2017 17:02 28,7 C 29,4 C 28,3 C 52 % 0 lf 1012,2 hPa 0,0 l/m 0 min 0 min 157 W/m 12,6 km/h (3 Bft) 93,62 %
11.06.2017 17:04 28,6 C 28,9 C 28,3 C 52 % 0 lf 1012,1 hPa 0,0 l/m 0 min 0 min 168 W/m 14,6 km/h (3 Bft) 95,74 %
11.06.2017 17:06 28,6 C 28,9 C 28,3 C 52 % 0 lf 1012,0 hPa 0,0 l/m 0 min 0 min 185 W/m 18,8 km/h (3 Bft) 95,74 %
11.06.2017 17:08 28,5 C 28,9 C 28,3 C 52 % 0 lf 1012,0 hPa 0,0 l/m 0 min 0 min 201 W/m 12,6 km/h (3 Bft) 95,65 %
11.06.2017 17:10 28,4 C 29,4 C 28,3 C 53 % 0 lf 1012,0 hPa 0,0 l/m 0 min 0 min 213 W/m 18,8 km/h (3 Bft) 95,74 %
11.06.2017 17:12 28,4 C 29,4 C 28,3 C 53 % 0 lf 1012,0 hPa 0,0 l/m 0 min 2 min 194 W/m 16,7 km/h (3 Bft) 95,74 %
11.06.2017 17:14 28,3 C 29,4 C 28,3 C 53 % 0 lf 1012,0 hPa 0,0 l/m 0 min 2 min 168 W/m 14,6 km/h (3 Bft) 100,00 %
11.06.2017 17:16 28,3 C 29,4 C 27,8 C 54 % 0 lf 1011,9 hPa 0,0 l/m 0 min 2 min 166 W/m 20,9 km/h (4 Bft) 100,00 %
11.06.2017 17:18 28,3 C 28,9 C 27,8 C 54 % 0 lf 1012,0 hPa 0,0 l/m 0 min 0 min 168 W/m 16,7 km/h (3 Bft) 97,87 %
11.06.2017 17:20 28,2 C 28,9 C 27,8 C 54 % 0 lf 1012,0 hPa 0,0 l/m 0 min 0 min 169 W/m 14,6 km/h (3 Bft) 97,83 %
11.06.2017 17:22 28,2 C 29,4 C 27,8 C 54 % 0 lf 1012,0 hPa 0,0 l/m 0 min 0 min 160 W/m 10,5 km/h (2 Bft) 100,00 %
11.06.2017 17:24 28,2 C 28,9 C 27,8 C 54 % 0 lf 1012,0 hPa 0,0 l/m 0 min 0 min 157 W/m 16,7 km/h (3 Bft) 100,00 %
11.06.2017 17:26 28,1 C 28,9 C 27,8 C 54 % 0 lf 1012,0 hPa 0,0 l/m 0 min 0 min 154 W/m 10,5 km/h (2 Bft) 93,62 %
11.06.2017 17:28 28,1 C 28,9 C 27,2 C 54 % 0 lf 1012,0 hPa 0,0 l/m 0 min 0 min 149 W/m 16,7 km/h (3 Bft) 97,87 %
11.06.2017 17:30 28,1 C 28,9 C 27,2 C 54 % 0 lf 1012,0 hPa 0,0 l/m 0 min 0 min 138 W/m 10,5 km/h (2 Bft) 97,87 %
11.06.2017 17:32 28,0 C 28,9 C 27,2 C 55 % 0 lf 1011,9 hPa 0,0 l/m 0 min 0 min 122 W/m 10,5 km/h (2 Bft) 100,00 %
11.06.2017 17:34 27,9 C 28,9 C 27,2 C 55 % 0 lf 1012,0 hPa 0,0 l/m 0 min 0 min 108 W/m 8,4 km/h (2 Bft) 97,87 %
11.06.2017 17:36 27,9 C 28,3 C 26,7 C 55 % 0 lf 1012,0 hPa 0,0 l/m 0 min 0 min 102 W/m 8,4 km/h (2 Bft) 100,00 %
11.06.2017 17:38 27,9 C 28,3 C 26,7 C 55 % 0 lf 1011,9 hPa 0,0 l/m 0 min 0 min 100 W/m 10,5 km/h (2 Bft) 97,87 %
11.06.2017 17:40 27,8 C 28,3 C 26,7 C 55 % 0 lf 1011,9 hPa 0,0 l/m 0 min 0 min 100 W/m 8,4 km/h (2 Bft) 100,00 %
11.06.2017 17:42 27,8 C 28,3 C 26,7 C 55 % 0 lf 1011,9 hPa 0,0 l/m 0 min 0 min 100 W/m 8,4 km/h (2 Bft) 100,00 %
11.06.2017 17:44 27,8 C 27,8 C 26,7 C 55 % 0 lf 1011,9 hPa 0,0 l/m 0 min 0 min 102 W/m 10,5 km/h (2 Bft) 97,96 %
11.06.2017 17:46 27,7 C 27,8 C 26,7 C 55 % 0 lf 1011,9 hPa 0,0 l/m 0 min 0 min 100 W/m 8,4 km/h (2 Bft) 100,00 %
11.06.2017 17:48 27,7 C 27,8 C 26,7 C 55 % 0 lf 1011,9 hPa 0,0 l/m 0 min 0 min 102 W/m 4,2 km/h (1 Bft) 97,87 %
11.06.2017 17:50 27,6 C 27,8 C 26,7 C 55 % 0 lf 1011,9 hPa 0,0 l/m 0 min 0 min 107 W/m 10,5 km/h (2 Bft) 100,00 %
11.06.2017 17:52 27,6 C 27,8 C 26,7 C 55 % 0 lf 1011,9 hPa 0,0 l/m 0 min 0 min 111 W/m 10,5 km/h (2 Bft) 97,92 %
11.06.2017 17:54 27,6 C 27,8 C 26,7 C 54 % 2 lf 1011,9 hPa 0,0 l/m 0 min 0 min 113 W/m 12,6 km/h (3 Bft) 100,00 %
11.06.2017 17:56 27,5 C 27,8 C 26,7 C 56 % 0 lf 1011,8 hPa 0,0 l/m 0 min 2 min 128 W/m 6,3 km/h (2 Bft) 100,00 %
11.06.2017 17:58 27,5 C 27,8 C 26,7 C 55 % 0 lf 1011,7 hPa 0,0 l/m 0 min 0 min 144 W/m 6,3 km/h (2 Bft) 100,00 %
11.06.2017 18:00 27,4 C 28,3 C 26,7 C 56 % 0 lf 1011,7 hPa 0,0 l/m 0 min 0 min 155 W/m 6,3 km/h (2 Bft) 97,87 %
11.06.2017 18:02 27,4 C 27,8 C 26,7 C 56 % 0 lf 1011,8 hPa 0,0 l/m 0 min 2 min 162 W/m 8,4 km/h (2 Bft) 100,00 %
11.06.2017 18:04 27,4 C 27,2 C 26,7 C 57 % 0 lf 1011,7 hPa 0,0 l/m 0 min 2 min 168 W/m 6,3 km/h (2 Bft) 100,00 %
11.06.2017 18:06 27,4 C 27,8 C 27,2 C 57 % 0 lf 1011,7 hPa 0,0 l/m 0 min 0 min 170 W/m 6,3 km/h (2 Bft) 97,14 %
11.06.2017 18:08 27,4 C 27,8 C 27,2 C 57 % 0 lf 1011,6 hPa 0,0 l/m 0 min 2 min 164 W/m 6,3 km/h (2 Bft) 100,00 %
11.06.2017 18:10 27,4 C 27,8 C 27,2 C 57 % 1 lf 1011,6 hPa 0,0 l/m 0 min 0 min 152 W/m 6,3 km/h (2 Bft) 100,00 %
11.06.2017 18:12 27,3 C 27,8 C 27,2 C 57 % 0 lf 1011,6 hPa 0,0 l/m 0 min 0 min 140 W/m 8,4 km/h (2 Bft) 100,00 %
11.06.2017 18:14 27,3 C 27,8 C 26,7 C 57 % 0 lf 1011,5 hPa 0,0 l/m 0 min 0 min 139 W/m 6,3 km/h (2 Bft) 100,00 %
11.06.2017 18:16 27,3 C 28,3 C 27,2 C 58 % 0 lf 1011,5 hPa 0,0 l/m 0 min 0 min 134 W/m 4,2 km/h (1 Bft) 100,00 %
11.06.2017 18:18 27,3 C 28,3 C 26,7 C 58 % 0 lf 1011,6 hPa 0,0 l/m 0 min 0 min 134 W/m 6,3 km/h (2 Bft) 95,83 %
11.06.2017 18:20 27,3 C 27,8 C 26,7 C 58 % 0 lf 1011,5 hPa 0,0 l/m 0 min 0 min 127 W/m 4,2 km/h (1 Bft) 100,00 %
11.06.2017 18:22 27,3 C 27,2 C 26,7 C 58 % 0 lf 1011,6 hPa 0,0 l/m 0 min 2 min 110 W/m 6,3 km/h (2 Bft) 97,14 %
11.06.2017 18:24 27,2 C 27,8 C 26,7 C 58 % 0 lf 1011,6 hPa 0,0 l/m 0 min 0 min 99 W/m 6,3 km/h (2 Bft) 97,87 %
11.06.2017 18:26 27,2 C 27,2 C 26,1 C 58 % 0 lf 1011,5 hPa 0,0 l/m 0 min 0 min 98 W/m 10,5 km/h (2 Bft) 100,00 %
11.06.2017 18:28 27,2 C 27,2 C 26,1 C 58 % 0 lf 1011,6 hPa 0,0 l/m 0 min 0 min 97 W/m 10,5 km/h (2 Bft) 98,15 %
11.06.2017 18:30 27,1 C 27,2 C 26,1 C 58 % 0 lf 1011,6 hPa 0,0 l/m 0 min 0 min 98 W/m 12,6 km/h (3 Bft) 95,65 %
11.06.2017 18:32 27,1 C 27,2 C 26,1 C 57 % 0 lf 1011,5 hPa 0,0 l/m 0 min 0 min 103 W/m 10,5 km/h (2 Bft) 97,87 %
11.06.2017 18:34 27,0 C 27,2 C 26,1 C 58 % 0 lf 1011,5 hPa 0,0 l/m 0 min 0 min 106 W/m 8,4 km/h (2 Bft) 97,87 %
11.06.2017 18:36 27,0 C 27,2 C 26,1 C 58 % 0 lf 1011,5 hPa 0,0 l/m 0 min 0 min 113 W/m 8,4 km/h (2 Bft) 95,74 %
11.06.2017 18:38 27,0 C 27,2 C 26,1 C 59 % 0 lf 1011,5 hPa 0,0 l/m 0 min 0 min 119 W/m 8,4 km/h (2 Bft) 95,74 %
11.06.2017 18:40 26,9 C 27,2 C 26,1 C 58 % 0 lf 1011,5 hPa 0,0 l/m 0 min 0 min 123 W/m 6,3 km/h (2 Bft) 95,74 %
11.06.2017 18:42 26,9 C 27,2 C 26,1 C 58 % 0 lf 1011,5 hPa 0,0 l/m 0 min 0 min 129 W/m 6,3 km/h (2 Bft) 91,30 %
11.06.2017 18:44 26,9 C 27,2 C 26,1 C 59 % 0 lf 1011,5 hPa 0,0 l/m 0 min 0 min 137 W/m 12,6 km/h (3 Bft) 92,00 %
11.06.2017 18:46 26,8 C 27,2 C 26,1 C 59 % 0 lf 1011,5 hPa 0,0 l/m 0 min 0 min 147 W/m 10,5 km/h (2 Bft) 93,62 %
11.06.2017 18:48 26,8 C 27,2 C 26,1 C 59 % 0 lf 1011,5 hPa 0,0 l/m 0 min 0 min 159 W/m 8,4 km/h (2 Bft) 91,49 %
11.06.2017 18:50 26,8 C 27,2 C 26,7 C 59 % 0 lf 1011,4 hPa 0,0 l/m 0 min 0 min 170 W/m 8,4 km/h (2 Bft) 91,49 %
11.06.2017 18:52 26,8 C 27,2 C 26,7 C 60 % 0 lf 1011,4 hPa 0,0 l/m 0 min 0 min 164 W/m 8,4 km/h (2 Bft) 91,67 %
11.06.2017 18:54 26,7 C 27,2 C 26,7 C 60 % 0 lf 1011,4 hPa 0,0 l/m 0 min 0 min 145 W/m 12,6 km/h (3 Bft) 93,48 %
11.06.2017 18:56 26,7 C 27,2 C 26,1 C 60 % 0 lf 1011,5 hPa 0,0 l/m 0 min 0 min 130 W/m 10,5 km/h (2 Bft) 93,75 %
11.06.2017 18:58 26,7 C 27,2 C 26,1 C 59 % 0 lf 1011,4 hPa 0,0 l/m 0 min 0 min 127 W/m 8,4 km/h (2 Bft) 95,65 %
11.06.2017 19:00 26,7 C 27,2 C 26,1 C 59 % 0 lf 1011,4 hPa 0,0 l/m 0 min 0 min 119 W/m 8,4 km/h (2 Bft) 93,62 %
11.06.2017 19:02 26,7 C 27,2 C 26,1 C 60 % 0 lf 1011,4 hPa 0,0 l/m 0 min 0 min 127 W/m 10,5 km/h (2 Bft) 93,62 %
11.06.2017 19:04 26,7 C 27,2 C 26,1 C 60 % 0 lf 1011,4 hPa 0,0 l/m 0 min 0 min 143 W/m 8,4 km/h (2 Bft) 91,43 %
11.06.2017 19:06 26,7 C 27,2 C 26,1 C 60 % 0 lf 1011,4 hPa 0,0 l/m 0 min 0 min 137 W/m 8,4 km/h (2 Bft) 91,23 %
11.06.2017 19:08 26,6 C 27,2 C 26,7 C 60 % 0 lf 1011,4 hPa 0,0 l/m 0 min 0 min 140 W/m 6,3 km/h (2 Bft) 93,62 %
11.06.2017 19:10 26,6 C 27,2 C 26,7 C 60 % 0 lf 1011,5 hPa 0,0 l/m 0 min 0 min 129 W/m 6,3 km/h (2 Bft) 93,62 %
11.06.2017 19:12 26,6 C 27,2 C 26,7 C 61 % 0 lf 1011,4 hPa 0,0 l/m 0 min 0 min 118 W/m 6,3 km/h (2 Bft) 93,62 %
11.06.2017 19:14 26,6 C 27,2 C 26,7 C 61 % 0 lf 1011,4 hPa 0,0 l/m 0 min 0 min 121 W/m 4,2 km/h (1 Bft) 93,62 %
11.06.2017 19:16 26,6 C 27,2 C 26,1 C 61 % 0 lf 1011,3 hPa 0,0 l/m 0 min 0 min 118 W/m 6,3 km/h (2 Bft) 93,48 %
11.06.2017 19:18 26,6 C 26,7 C 26,1 C 61 % 0 lf 1011,4 hPa 0,0 l/m 0 min 2 min 108 W/m 8,4 km/h (2 Bft) 93,62 %
11.06.2017 19:20 26,6 C 26,7 C 25,6 C 61 % 0 lf 1011,3 hPa 0,0 l/m 0 min 2 min 100 W/m 6,3 km/h (2 Bft) 93,62 %
11.06.2017 19:22 26,6 C 26,7 C 25,6 C 61 % 0 lf 1011,2 hPa 0,0 l/m 0 min 0 min 105 W/m 6,3 km/h (2 Bft) 95,83 %
11.06.2017 19:24 26,6 C 26,7 C 25,6 C 61 % 0 lf 1011,1 hPa 0,0 l/m 0 min 0 min 112 W/m 8,4 km/h (2 Bft) 97,87 %
11.06.2017 19:26 26,6 C 26,7 C 25,6 C 61 % 0 lf 1011,1 hPa 0,0 l/m 0 min 0 min 118 W/m 6,3 km/h (2 Bft) 100,00 %
11.06.2017 19:28 26,6 C 26,7 C 25,6 C 61 % 0 lf 1011,0 hPa 0,0 l/m 0 min 0 min 129 W/m 6,3 km/h (2 Bft) 97,87 %
11.06.2017 19:30 26,5 C 26,7 C 26,1 C 61 % 0 lf 1011,0 hPa 0,0 l/m 0 min 0 min 133 W/m 6,3 km/h (2 Bft) 97,87 %
11.06.2017 19:32 26,5 C 26,7 C 26,1 C 61 % 0 lf 1011,0 hPa 0,0 l/m 0 min 0 min 116 W/m 6,3 km/h (2 Bft) 98,15 %
11.06.2017 19:34 26,5 C 26,7 C 26,1 C 62 % 0 lf 1010,9 hPa 0,0 l/m 0 min 0 min 102 W/m 4,2 km/h (1 Bft) 97,87 %
11.06.2017 19:36 26,5 C 26,7 C 25,6 C 61 % 0 lf 1010,9 hPa 0,0 l/m 0 min 0 min 87 W/m 6,3 km/h (2 Bft) 97,87 %
11.06.2017 19:38 26,4 C 26,1 C 25,6 C 61 % 0 lf 1010,8 hPa 0,0 l/m 0 min 0 min 76 W/m 6,3 km/h (2 Bft) 100,00 %
11.06.2017 19:40 26,4 C 26,1 C 25,6 C 61 % 0 lf 1010,7 hPa 0,0 l/m 0 min 0 min 62 W/m 6,3 km/h (2 Bft) 97,87 %
11.06.2017 19:42 26,4 C 26,1 C 25,0 C 61 % 0 lf 1010,7 hPa 0,0 l/m 0 min 0 min 53 W/m 4,2 km/h (1 Bft) 97,83 %
11.06.2017 19:44 26,4 C 26,1 C 25,0 C 61 % 0 lf 1010,7 hPa 0,0 l/m 0 min 0 min 49 W/m 6,3 km/h (2 Bft) 98,00 %
11.06.2017 19:46 26,4 C 26,1 C 24,4 C 61 % 0 lf 1010,8 hPa 0,0 l/m 0 min 0 min 44 W/m 4,2 km/h (1 Bft) 97,87 %
11.06.2017 19:48 26,3 C 26,1 C 24,4 C 61 % 0 lf 1010,9 hPa 0,0 l/m 0 min 0 min 38 W/m 6,3 km/h (2 Bft) 97,87 %
11.06.2017 19:50 26,3 C 25,6 C 24,4 C 62 % 0 lf 1010,9 hPa 0,0 l/m 0 min 0 min 33 W/m 6,3 km/h (2 Bft) 97,87 %
11.06.2017 19:52 26,3 C 25,6 C 24,4 C 62 % 0 lf 1010,8 hPa 0,0 l/m 0 min 0 min 30 W/m 6,3 km/h (2 Bft) 97,92 %
11.06.2017 19:54 26,2 C 25,6 C 24,4 C 62 % 0 lf 1010,8 hPa 0,0 l/m 0 min 0 min 28 W/m 8,4 km/h (2 Bft) 95,74 %
11.06.2017 19:56 26,2 C 25,6 C 23,9 C 62 % 0 lf 1010,8 hPa 0,0 l/m 0 min 0 min 28 W/m 6,3 km/h (2 Bft) 95,74 %
11.06.2017 19:58 26,2 C 25,0 C 23,9 C 62 % 0 lf 1010,8 hPa 0,0 l/m 0 min 0 min 29 W/m 8,4 km/h (2 Bft) 97,83 %
11.06.2017 20:00 26,1 C 25,0 C 23,9 C 62 % 0 lf 1010,8 hPa 0,0 l/m 0 min 0 min 30 W/m 6,3 km/h (2 Bft) 97,87 %
11.06.2017 20:02 26,1 C 25,0 C 23,9 C 62 % 0 lf 1010,8 hPa 0,0 l/m 0 min 0 min 25 W/m 8,4 km/h (2 Bft) 97,87 %
11.06.2017 20:04 26,0 C 25,0 C 23,9 C 62 % 0 lf 1010,7 hPa 0,0 l/m 0 min 0 min 24 W/m 6,3 km/h (2 Bft) 97,14 %
11.06.2017 20:06 26,0 C 25,0 C 23,9 C 62 % 0 lf 1010,8 hPa 0,0 l/m 0 min 0 min 28 W/m 4,2 km/h (1 Bft) 97,87 %
11.06.2017 20:08 25,9 C 25,0 C 23,9 C 62 % 0 lf 1010,8 hPa 0,0 l/m 0 min 0 min 33 W/m 6,3 km/h (2 Bft) 96,30 %
11.06.2017 20:10 25,9 C 25,0 C 23,9 C 62 % 0 lf 1010,8 hPa 0,0 l/m 0 min 0 min 38 W/m 4,2 km/h (1 Bft) 97,87 %
11.06.2017 20:12 25,8 C 25,0 C 23,9 C 62 % 0 lf 1010,7 hPa 0,0 l/m 0 min 0 min 45 W/m 6,3 km/h (2 Bft) 97,87 %
11.06.2017 20:14 25,8 C 25,0 C 23,9 C 63 % 0 lf 1010,7 hPa 0,0 l/m 0 min 0 min 47 W/m 6,3 km/h (2 Bft) 95,74 %
11.06.2017 20:16 25,8 C 25,0 C 23,9 C 63 % 0 lf 1010,7 hPa 0,0 l/m 0 min 0 min 43 W/m 8,4 km/h (2 Bft) 97,83 %
11.06.2017 20:18 25,8 C 25,0 C 23,9 C 63 % 0 lf 1010,7 hPa 0,0 l/m 0 min 0 min 39 W/m 4,2 km/h (1 Bft) 97,87 %
11.06.2017 20:20 25,7 C 25,0 C 23,9 C 63 % 0 lf 1010,7 hPa 0,0 l/m 0 min 0 min 67 W/m 6,3 km/h (2 Bft) 97,87 %
11.06.2017 20:22 25,7 C 25,0 C 23,9 C 63 % 0 lf 1010,7 hPa 0,0 l/m 0 min 0 min 50 W/m 4,2 km/h (1 Bft) 97,92 %
11.06.2017 20:24 25,7 C 25,0 C 23,9 C 63 % 0 lf 1010,7 hPa 0,0 l/m 0 min 2 min 59 W/m 4,2 km/h (1 Bft) 95,74 %
11.06.2017 20:26 25,7 C 25,0 C 23,9 C 63 % 0 lf 1010,7 hPa 0,0 l/m 0 min 0 min 63 W/m 4,2 km/h (1 Bft) 93,62 %
11.06.2017 20:28 25,6 C 25,0 C 23,9 C 64 % 0 lf 1010,7 hPa 0,0 l/m 0 min 0 min 64 W/m 4,2 km/h (1 Bft) 97,83 %
11.06.2017 20:30 25,6 C 25,6 C 23,9 C 64 % 0 lf 1010,7 hPa 0,0 l/m 0 min 0 min 63 W/m 6,3 km/h (2 Bft) 97,87 %
11.06.2017 20:32 25,6 C 25,6 C 24,4 C 64 % 0 lf 1010,7 hPa 0,0 l/m 0 min 0 min 56 W/m 6,3 km/h (2 Bft) 97,87 %
11.06.2017 20:34 25,6 C 25,6 C 23,9 C 64 % 0 lf 1010,7 hPa 0,0 l/m 0 min 0 min 51 W/m 8,4 km/h (2 Bft) 97,87 %
11.06.2017 20:36 25,6 C 25,6 C 23,9 C 64 % 0 lf 1010,7 hPa 0,0 l/m 0 min 0 min 46 W/m 6,3 km/h (2 Bft) 97,87 %
11.06.2017 20:38 25,5 C 25,6 C 23,9 C 63 % 0 lf 1010,7 hPa 0,0 l/m 0 min 0 min 37 W/m 6,3 km/h (2 Bft) 97,96 %
11.06.2017 20:40 25,5 C 25,6 C 23,9 C 63 % 0 lf 1010,7 hPa 0,0 l/m 0 min 0 min 26 W/m 4,2 km/h (1 Bft) 100,00 %
11.06.2017 20:42 25,5 C 25,0 C 23,9 C 63 % 0 lf 1010,7 hPa 0,0 l/m 0 min 0 min 23 W/m 6,3 km/h (2 Bft) 100,00 %
11.06.2017 20:44 25,4 C 25,0 C 23,9 C 63 % 0 lf 1010,7 hPa 0,0 l/m 0 min 0 min 30 W/m 10,5 km/h (2 Bft) 100,00 %
11.06.2017 20:46 25,4 C 25,0 C 23,9 C 63 % 0 lf 1010,7 hPa 0,0 l/m 0 min 0 min 31 W/m 8,4 km/h (2 Bft) 95,74 %
11.06.2017 20:48 25,4 C 25,0 C 23,9 C 63 % 0 lf 1010,7 hPa 0,0 l/m 0 min 0 min 33 W/m 6,3 km/h (2 Bft) 97,87 %
11.06.2017 20:50 25,4 C 25,0 C 23,9 C 63 % 0 lf 1010,7 hPa 0,0 l/m 0 min 0 min 30 W/m 6,3 km/h (2 Bft) 95,74 %
11.06.2017 20:52 25,3 C 25,0 C 23,9 C 63 % 0 lf 1010,8 hPa 0,0 l/m 0 min 0 min 26 W/m 6,3 km/h (2 Bft) 97,87 %
11.06.2017 20:54 25,3 C 25,0 C 23,3 C 63 % 0 lf 1010,8 hPa 0,0 l/m 0 min 0 min 20 W/m 6,3 km/h (2 Bft) 95,74 %
11.06.2017 20:56 25,3 C 25,0 C 23,3 C 64 % 0 lf 1010,8 hPa 0,0 l/m 0 min 0 min 15 W/m 4,2 km/h (1 Bft) 97,83 %
11.06.2017 20:58 25,3 C 25,0 C 23,3 C 64 % 0 lf 1010,8 hPa 0,0 l/m 0 min 0 min 12 W/m 4,2 km/h (1 Bft) 97,87 %
11.06.2017 21:00 25,3 C 25,0 C 23,3 C 64 % 0 lf 1010,8 hPa 0,0 l/m 0 min 0 min 13 W/m 2,1 km/h (1 Bft) 97,87 %
11.06.2017 21:02 25,3 C 24,4 C 23,3 C 64 % 0 lf 1010,9 hPa 0,0 l/m 0 min 0 min 14 W/m 0,0 km/h (0 Bft) 97,14 %
11.06.2017 21:04 25,3 C 24,4 C 22,8 C 64 % 0 lf 1010,8 hPa 0,0 l/m 0 min 0 min 14 W/m 4,2 km/h (1 Bft) 98,31 %
11.06.2017 21:06 25,2 C 24,4 C 22,8 C 65 % 0 lf 1010,8 hPa 0,0 l/m 0 min 0 min 13 W/m 2,1 km/h (1 Bft) 93,62 %
11.06.2017 21:08 25,2 C 24,4 C 22,8 C 65 % 0 lf 1010,8 hPa 0,0 l/m 0 min 0 min 14 W/m 2,1 km/h (1 Bft) 95,65 %
11.06.2017 21:10 25,2 C 24,4 C 22,8 C 66 % 0 lf 1010,8 hPa 0,0 l/m 0 min 0 min 12 W/m 6,3 km/h (2 Bft) 97,87 %
11.06.2017 21:12 25,2 C 24,4 C 22,8 C 66 % 0 lf 1010,9 hPa 0,0 l/m 0 min 0 min 15 W/m 4,2 km/h (1 Bft) 95,74 %
11.06.2017 21:14 25,2 C 24,4 C 22,8 C 66 % 0 lf 1010,8 hPa 0,0 l/m 0 min 0 min 19 W/m 6,3 km/h (2 Bft) 94,29 %
11.06.2017 21:16 25,1 C 24,4 C 22,2 C 65 % 15 lf 1010,9 hPa 0,0 l/m 0 min 2 min 25 W/m 6,3 km/h (2 Bft) 93,62 %
11.06.2017 21:18 25,1 C 22,8 C 20,6 C 66 % 15 lf 1011,1 hPa 0,0 l/m 0 min 2 min 23 W/m 8,4 km/h (2 Bft) 95,74 %
11.06.2017 21:20 25,1 C 21,1 C 19,4 C 67 % 15 lf 1011,1 hPa 0,0 l/m 0 min 2 min 19 W/m 16,7 km/h (3 Bft) 96,30 %
11.06.2017 21:22 25,1 C 21,1 C 18,9 C 68 % 15 lf 1010,9 hPa 0,0 l/m 0 min 2 min 18 W/m 10,5 km/h (2 Bft) 97,87 %
11.06.2017 21:24 25,0 C 21,1 C 18,3 C 68 % 15 lf 1010,9 hPa 0,0 l/m 0 min 2 min 17 W/m 18,8 km/h (3 Bft) 98,00 %
11.06.2017 21:26 24,8 C 21,1 C 18,3 C 68 % 15 lf 1010,9 hPa 0,0 l/m 0 min 0 min 14 W/m 14,6 km/h (3 Bft) 97,83 %
11.06.2017 21:28 24,7 C 21,1 C 18,3 C 68 % 14 lf 1010,9 hPa 0,0 l/m 0 min 0 min 12 W/m 18,8 km/h (3 Bft) 93,62 %
11.06.2017 21:30 24,6 C 21,1 C 18,3 C 68 % 1 lf 1010,9 hPa 0,0 l/m 0 min 0 min 11 W/m 20,9 km/h (4 Bft) 97,87 %
11.06.2017 21:32 24,5 C 21,7 C 18,3 C 68 % 0 lf 1010,8 hPa 0,0 l/m 0 min 0 min 11 W/m 20,9 km/h (4 Bft) 97,87 %
11.06.2017 21:34 24,3 C 21,7 C 18,3 C 68 % 0 lf 1010,8 hPa 0,0 l/m 0 min 0 min 9 W/m 18,8 km/h (3 Bft) 97,87 %
11.06.2017 21:36 24,2 C 22,2 C 18,3 C 68 % 0 lf 1010,8 hPa 0,0 l/m 0 min 0 min 8 W/m 18,8 km/h (3 Bft) 97,83 %
11.06.2017 21:38 24,1 C 22,2 C 18,3 C 69 % 0 lf 1010,8 hPa 0,0 l/m 0 min 0 min 7 W/m 16,7 km/h (3 Bft) 95,74 %
11.06.2017 21:40 24,0 C 22,2 C 18,3 C 69 % 0 lf 1010,8 hPa 0,0 l/m 0 min 0 min 5 W/m 18,8 km/h (3 Bft) 95,74 %
11.06.2017 21:42 23,9 C 22,2 C 18,9 C 69 % 0 lf 1010,8 hPa 0,0 l/m 0 min 0 min 5 W/m 18,8 km/h (3 Bft) 91,49 %
11.06.2017 21:44 23,8 C 22,8 C 18,9 C 70 % 0 lf 1010,9 hPa 0,0 l/m 0 min 0 min 5 W/m 18,8 km/h (3 Bft) 95,74 %
11.06.2017 21:46 23,8 C 22,8 C 19,4 C 70 % 0 lf 1010,8 hPa 0,0 l/m 0 min 0 min 2 W/m 16,7 km/h (3 Bft) 95,74 %
11.06.2017 21:48 23,7 C 22,8 C 20,0 C 71 % 0 lf 1010,8 hPa 0,0 l/m 0 min 0 min 0 W/m 12,6 km/h (3 Bft) 95,65 %
11.06.2017 21:50 23,7 C 22,8 C 20,0 C 71 % 0 lf 1010,8 hPa 0,0 l/m 0 min 0 min 0 W/m 14,6 km/h (3 Bft) 91,49 %
11.06.2017 21:52 23,6 C 22,8 C 20,6 C 71 % 0 lf 1010,8 hPa 0,0 l/m 0 min 0 min 0 W/m 14,6 km/h (3 Bft) 93,62 %
11.06.2017 21:54 23,6 C 22,8 C 20,6 C 71 % 0 lf 1010,8 hPa 0,0 l/m 0 min 0 min 0 W/m 10,5 km/h (2 Bft) 97,92 %
11.06.2017 21:56 23,5 C 22,8 C 20,6 C 71 % 0 lf 1010,8 hPa 0,0 l/m 0 min 0 min 0 W/m 14,6 km/h (3 Bft) 93,62 %
11.06.2017 21:58 23,4 C 22,8 C 20,6 C 71 % 0 lf 1010,8 hPa 0,0 l/m 0 min 0 min 0 W/m 16,7 km/h (3 Bft) 95,74 %
11.06.2017 22:00 23,4 C 22,8 C 20,6 C 72 % 0 lf 1010,9 hPa 0,0 l/m 0 min 0 min 0 W/m 14,6 km/h (3 Bft) 97,87 %
11.06.2017 22:02 23,4 C 22,8 C 20,6 C 72 % 0 lf 1010,9 hPa 0,0 l/m 0 min 0 min 0 W/m 14,6 km/h (3 Bft) 94,29 %
11.06.2017 22:04 23,3 C 22,8 C 20,6 C 72 % 0 lf 1010,8 hPa 0,0 l/m 0 min 0 min 0 W/m 12,6 km/h (3 Bft) 97,87 %
11.06.2017 22:06 23,3 C 22,8 C 20,6 C 72 % 0 lf 1010,9 hPa 0,0 l/m 0 min 0 min 0 W/m 10,5 km/h (2 Bft) 97,87 %
11.06.2017 22:08 23,2 C 22,8 C 20,6 C 72 % 0 lf 1010,9 hPa 0,0 l/m 0 min 0 min 0 W/m 10,5 km/h (2 Bft) 95,74 %
11.06.2017 22:10 23,2 C 22,8 C 20,6 C 72 % 0 lf 1011,2 hPa 0,0 l/m 0 min 0 min 0 W/m 10,5 km/h (2 Bft) 97,87 %
11.06.2017 22:12 23,2 C 22,8 C 20,6 C 73 % 0 lf 1011,5 hPa 0,0 l/m 0 min 0 min 0 W/m 18,8 km/h (3 Bft) 98,15 %
11.06.2017 22:14 23,1 C 22,8 C 20,6 C 73 % 0 lf 1011,6 hPa 0,0 l/m 0 min 0 min 0 W/m 25,1 km/h (4 Bft) 93,88 %
11.06.2017 22:16 23,1 C 22,8 C 20,6 C 73 % 0 lf 1011,6 hPa 0,0 l/m 0 min 0 min 0 W/m 14,6 km/h (3 Bft) 97,87 %
11.06.2017 22:18 23,1 C 22,2 C 20,6 C 73 % 0 lf 1011,8 hPa 0,0 l/m 0 min 0 min 0 W/m 23,0 km/h (4 Bft) 97,92 %
11.06.2017 22:20 23,0 C 22,2 C 20,6 C 73 % 0 lf 1011,9 hPa 0,0 l/m 0 min 0 min 0 W/m 14,6 km/h (3 Bft) 97,87 %
11.06.2017 22:22 22,9 C 22,2 C 20,6 C 73 % 0 lf 1011,9 hPa 0,0 l/m 0 min 0 min 0 W/m 23,0 km/h (4 Bft) 95,74 %
11.06.2017 22:24 22,9 C 22,2 C 20,6 C 74 % 0 lf 1012,0 hPa 0,0 l/m 0 min 0 min 0 W/m 14,6 km/h (3 Bft) 97,87 %
11.06.2017 22:26 22,9 C 22,2 C 20,6 C 74 % 0 lf 1012,0 hPa 0,0 l/m 0 min 0 min 0 W/m 18,8 km/h (3 Bft) 97,87 %
11.06.2017 22:28 22,8 C 22,2 C 20,6 C 74 % 0 lf 1012,0 hPa 0,0 l/m 0 min 0 min 0 W/m 23,0 km/h (4 Bft) 95,74 %
11.06.2017 22:30 22,7 C 21,7 C 20,0 C 74 % 0 lf 1012,0 hPa 0,0 l/m 0 min 0 min 0 W/m 20,9 km/h (4 Bft) 97,83 %
11.06.2017 22:32 22,7 C 21,7 C 20,0 C 75 % 0 lf 1012,0 hPa 0,0 l/m 0 min 0 min 0 W/m 20,9 km/h (4 Bft) 93,62 %
11.06.2017 22:34 22,6 C 21,7 C 20,0 C 75 % 0 lf 1012,1 hPa 0,0 l/m 0 min 0 min 0 W/m 16,7 km/h (3 Bft) 95,74 %
11.06.2017 22:36 22,6 C 21,7 C 20,0 C 75 % 0 lf 1012,2 hPa 0,0 l/m 0 min 0 min 0 W/m 14,6 km/h (3 Bft) 91,49 %
11.06.2017 22:38 22,4 C 21,1 C 20,0 C 75 % 0 lf 1012,2 hPa 0,0 l/m 0 min 0 min 0 W/m 23,0 km/h (4 Bft) 100,00 %
11.06.2017 22:40 22,4 C 21,1 C 20,0 C 76 % 0 lf 1012,2 hPa 0,0 l/m 0 min 0 min 0 W/m 14,6 km/h (3 Bft) 100,00 %
11.06.2017 22:42 22,3 C 21,1 C 20,0 C 76 % 0 lf 1012,2 hPa 0,0 l/m 0 min 0 min 0 W/m 20,9 km/h (4 Bft) 97,83 %
11.06.2017 22:44 22,2 C 21,1 C 19,4 C 76 % 0 lf 1012,2 hPa 0,0 l/m 0 min 0 min 0 W/m 25,1 km/h (4 Bft) 95,74 %
11.06.2017 22:46 22,1 C 21,1 C 19,4 C 76 % 0 lf 1012,2 hPa 0,0 l/m 0 min 0 min 0 W/m 23,0 km/h (4 Bft) 97,87 %
11.06.2017 22:48 22,0 C 21,1 C 19,4 C 75 % 0 lf 1012,2 hPa 0,0 l/m 0 min 0 min 0 W/m 18,8 km/h (3 Bft) 94,29 %
11.06.2017 22:50 21,9 C 20,6 C 19,4 C 75 % 0 lf 1012,2 hPa 0,0 l/m 0 min 0 min 0 W/m 18,8 km/h (3 Bft) 94,34 %
11.06.2017 22:52 21,8 C 20,6 C 19,4 C 76 % 0 lf 1012,1 hPa 0,0 l/m 0 min 0 min 0 W/m 20,9 km/h (4 Bft) 95,74 %
11.06.2017 22:54 21,7 C 20,6 C 19,4 C 76 % 0 lf 1012,1 hPa 0,0 l/m 0 min 0 min 0 W/m 18,8 km/h (3 Bft) 93,62 %
11.06.2017 22:56 21,7 C 20,6 C 19,4 C 76 % 0 lf 1012,0 hPa 0,0 l/m 0 min 0 min 0 W/m 16,7 km/h (3 Bft) 96,00 %
11.06.2017 22:58 21,6 C 20,6 C 19,4 C 76 % 0 lf 1012,1 hPa 0,0 l/m 0 min 0 min 0 W/m 18,8 km/h (3 Bft) 93,88 %
11.06.2017 23:00 21,5 C 20,6 C 19,4 C 76 % 0 lf 1012,1 hPa 0,0 l/m 0 min 0 min 0 W/m 10,5 km/h (2 Bft) 95,74 %
11.06.2017 23:02 21,4 C 20,6 C 19,4 C 76 % 0 lf 1012,2 hPa 0,0 l/m 0 min 0 min 0 W/m 14,6 km/h (3 Bft) 94,29 %
11.06.2017 23:04 21,4 C 20,6 C 19,4 C 76 % 0 lf 1012,2 hPa 0,0 l/m 0 min 0 min 0 W/m 14,6 km/h (3 Bft) 95,74 %
11.06.2017 23:06 21,3 C 20,6 C 18,9 C 77 % 0 lf 1012,2 hPa 0,0 l/m 0 min 0 min 0 W/m 10,5 km/h (2 Bft) 95,74 %
11.06.2017 23:08 21,3 C 20,6 C 18,9 C 77 % 0 lf 1012,2 hPa 0,0 l/m 0 min 0 min 0 W/m 14,6 km/h (3 Bft) 94,34 %
11.06.2017 23:10 21,3 C 20,6 C 18,9 C 77 % 0 lf 1012,3 hPa 0,0 l/m 0 min 0 min 0 W/m 16,7 km/h (3 Bft) 95,74 %
11.06.2017 23:12 21,2 C 20,6 C 18,9 C 78 % 0 lf 1012,2 hPa 0,0 l/m 0 min 0 min 0 W/m 16,7 km/h (3 Bft) 93,48 %
11.06.2017 23:14 21,2 C 20,6 C 18,9 C 78 % 0 lf 1012,2 hPa 0,0 l/m 0 min 0 min 0 W/m 12,6 km/h (3 Bft) 93,62 %
11.06.2017 23:16 21,1 C 20,6 C 18,9 C 78 % 0 lf 1012,2 hPa 0,0 l/m 0 min 0 min 0 W/m 10,5 km/h (2 Bft) 95,74 %
11.06.2017 23:18 21,1 C 20,6 C 18,9 C 78 % 0 lf 1012,2 hPa 0,0 l/m 0 min 0 min 0 W/m 16,7 km/h (3 Bft) 96,00 %
11.06.2017 23:20 21,0 C 20,6 C 18,9 C 78 % 0 lf 1012,2 hPa 0,0 l/m 0 min 0 min 0 W/m 18,8 km/h (3 Bft) 93,88 %
11.06.2017 23:22 21,0 C 20,6 C 18,9 C 78 % 0 lf 1012,2 hPa 0,0 l/m 0 min 0 min 0 W/m 18,8 km/h (3 Bft) 95,74 %
11.06.2017 23:24 20,9 C 20,6 C 18,9 C 78 % 0 lf 1012,2 hPa 0,0 l/m 0 min 0 min 0 W/m 20,9 km/h (4 Bft) 95,74 %
11.06.2017 23:26 20,9 C 20,0 C 18,9 C 78 % 0 lf 1012,3 hPa 0,0 l/m 0 min 0 min 0 W/m 14,6 km/h (3 Bft) 97,87 %
11.06.2017 23:28 20,8 C 20,0 C 18,9 C 78 % 0 lf 1012,3 hPa 0,0 l/m 0 min 0 min 0 W/m 12,6 km/h (3 Bft) 94,29 %
11.06.2017 23:30 20,8 C 20,0 C 18,9 C 78 % 0 lf 1012,3 hPa 0,0 l/m 0 min 0 min 0 W/m 10,5 km/h (2 Bft) 97,87 %
11.06.2017 23:32 20,8 C 20,0 C 18,9 C 78 % 0 lf 1012,3 hPa 0,0 l/m 0 min 0 min 0 W/m 18,8 km/h (3 Bft) 96,23 %
11.06.2017 23:34 20,7 C 20,0 C 18,9 C 78 % 0 lf 1012,3 hPa 0,0 l/m 0 min 0 min 0 W/m 14,6 km/h (3 Bft) 97,87 %
11.06.2017 23:36 20,7 C 20,0 C 18,9 C 78 % 0 lf 1012,4 hPa 0,0 l/m 0 min 0 min 0 W/m 10,5 km/h (2 Bft) 95,65 %
11.06.2017 23:38 20,7 C 20,0 C 18,3 C 78 % 0 lf 1012,5 hPa 0,0 l/m 0 min 0 min 0 W/m 8,4 km/h (2 Bft) 97,87 %
11.06.2017 23:40 20,6 C 20,0 C 18,3 C 78 % 0 lf 1012,5 hPa 0,0 l/m 0 min 0 min 0 W/m 14,6 km/h (3 Bft) 98,00 %
11.06.2017 23:42 20,6 C 20,0 C 18,3 C 78 % 0 lf 1012,4 hPa 0,0 l/m 0 min 0 min 0 W/m 8,4 km/h (2 Bft) 95,74 %
11.06.2017 23:44 20,6 C 20,0 C 18,3 C 77 % 0 lf 1012,5 hPa 0,0 l/m 0 min 0 min 0 W/m 18,8 km/h (3 Bft) 100,00 %
11.06.2017 23:46 20,5 C 20,0 C 18,3 C 76 % 0 lf 1012,4 hPa 0,0 l/m 0 min 0 min 0 W/m 16,7 km/h (3 Bft) 100,00 %
11.06.2017 23:48 20,4 C 20,0 C 18,3 C 76 % 0 lf 1012,4 hPa 0,0 l/m 0 min 0 min 0 W/m 16,7 km/h (3 Bft) 100,00 %
11.06.2017 23:50 20,4 C 20,0 C 18,3 C 75 % 0 lf 1012,5 hPa 0,0 l/m 0 min 0 min 0 W/m 14,6 km/h (3 Bft) 100,00 %
11.06.2017 23:52 20,3 C 20,0 C 18,3 C 75 % 0 lf 1012,5 hPa 0,0 l/m 0 min 0 min 0 W/m 14,6 km/h (3 Bft) 100,00 %
11.06.2017 23:54 20,3 C 19,4 C 18,3 C 75 % 0 lf 1012,4 hPa 0,0 l/m 0 min 0 min 0 W/m 12,6 km/h (3 Bft) 97,87 %
11.06.2017 23:56 20,2 C 19,4 C 18,3 C 74 % 0 lf 1012,5 hPa 0,0 l/m 0 min 0 min 0 W/m 12,6 km/h (3 Bft) 100,00 %
11.06.2017 23:58 20,2 C 19,4 C 18,3 C 74 % 0 lf 1012,5 hPa 0,0 l/m 0 min 0 min 0 W/m 14,6 km/h (3 Bft) 97,87 %
_ Min-Zeit 05:15 04:25 03:00 14:58 00:00 19:40 - - - - 02:05 02:05
Minimum _ 15,8 C 15,6 C 13,9 C 47 % 0 lf 1010,7 hPa - - - - 0,0 km/h (0 Bft) 0,00 %
_ Max-Zeit 14:52 13:46 14:48 05:20 21:16 00:00 00:00 08:43 15:14 14:50 13:10 03:55
Maximum _ 30,8 C 38,3 C 41,7 C 86 % 15 lf 1018,1 hPa 0,0 l/m 3 min 2 min 1149 W/m 29,3 km/h
W (5 Bft)
100,00 %
Durchschnitt _ 23,0 C 24,8 C 23,2 C 68 % 0 lf 1014,8 hPa #0,0 l/m #7:24 h #34 min. 353 W/m 11,6 km/h (2 Bft) 90,25 %
© 2017 W. Hausmann